Wetterdaten: Montag, 13.06.2016
Datum Zeit Temp. Aussen Temp. o. S. +5cm Feuchte Auss BlattFeu 1 Luftdruck Regen Sonnenschein Regendauer Solar Windben Empfang
13.06.2016 00:00 15,6 C 15,0 C 14,4 C 96 % 15 lf 1005,1 hPa 0,0 l/m 0 min 0 min 5 W/m 6,3 km/h (2 Bft) 100,00 %
13.06.2016 00:02 15,6 C 15,0 C 14,4 C 96 % 15 lf 1005,0 hPa 0,0 l/m 0 min 0 min 5 W/m 8,4 km/h (2 Bft) 97,44 %
13.06.2016 00:06 15,6 C 15,0 C 14,4 C 97 % 15 lf 1005,0 hPa 0,0 l/m 0 min 0 min 4 W/m 10,5 km/h (2 Bft) 96,77 %
13.06.2016 00:08 15,6 C 15,0 C 14,4 C 97 % 15 lf 1005,0 hPa 0,0 l/m 0 min 0 min 5 W/m 6,3 km/h (2 Bft) 97,87 %
13.06.2016 00:10 15,6 C 15,0 C 14,4 C 97 % 15 lf 1005,0 hPa 0,0 l/m 0 min 0 min 5 W/m 6,3 km/h (2 Bft) 95,74 %
13.06.2016 00:12 15,6 C 15,0 C 14,4 C 97 % 15 lf 1005,0 hPa 0,0 l/m 0 min 0 min 5 W/m 8,4 km/h (2 Bft) 91,49 %
13.06.2016 00:14 15,6 C 15,0 C 14,4 C 97 % 15 lf 1004,9 hPa 0,0 l/m 0 min 0 min 5 W/m 6,3 km/h (2 Bft) 97,87 %
13.06.2016 00:16 15,6 C 15,0 C 14,4 C 97 % 15 lf 1004,9 hPa 0,0 l/m 0 min 0 min 5 W/m 10,5 km/h (2 Bft) 97,87 %
13.06.2016 00:18 15,6 C 15,0 C 14,4 C 97 % 15 lf 1004,9 hPa 0,0 l/m 0 min 0 min 5 W/m 4,2 km/h (1 Bft) 97,83 %
13.06.2016 00:20 15,6 C 15,0 C 14,4 C 97 % 15 lf 1004,9 hPa 0,0 l/m 0 min 0 min 5 W/m 6,3 km/h (2 Bft) 97,87 %
13.06.2016 00:22 15,5 C 15,0 C 14,4 C 97 % 15 lf 1004,8 hPa 0,0 l/m 0 min 0 min 5 W/m 6,3 km/h (2 Bft) 95,74 %
13.06.2016 00:24 15,5 C 15,0 C 14,4 C 97 % 15 lf 1004,8 hPa 0,0 l/m 0 min 0 min 5 W/m 6,3 km/h (2 Bft) 97,87 %
13.06.2016 00:26 15,5 C 15,0 C 14,4 C 97 % 15 lf 1004,8 hPa 0,0 l/m 0 min 0 min 5 W/m 4,2 km/h (1 Bft) 97,87 %
13.06.2016 00:28 15,5 C 15,0 C 14,4 C 97 % 15 lf 1004,8 hPa 0,0 l/m 0 min 0 min 5 W/m 6,3 km/h (2 Bft) 97,87 %
13.06.2016 00:30 15,5 C 15,0 C 14,4 C 97 % 15 lf 1004,8 hPa 0,0 l/m 0 min 0 min 5 W/m 4,2 km/h (1 Bft) 89,13 %
13.06.2016 00:32 15,5 C 15,0 C 14,4 C 97 % 15 lf 1004,7 hPa 0,0 l/m 0 min 0 min 5 W/m 4,2 km/h (1 Bft) 97,87 %
13.06.2016 00:34 15,5 C 15,0 C 13,9 C 97 % 15 lf 1004,8 hPa 0,0 l/m 0 min 0 min 5 W/m 4,2 km/h (1 Bft) 95,74 %
13.06.2016 00:36 15,4 C 15,0 C 13,9 C 97 % 15 lf 1004,7 hPa 0,0 l/m 0 min 0 min 3 W/m 6,3 km/h (2 Bft) 95,74 %
13.06.2016 00:38 15,4 C 15,0 C 13,9 C 97 % 15 lf 1004,7 hPa 0,0 l/m 0 min 0 min 3 W/m 6,3 km/h (2 Bft) 93,62 %
13.06.2016 00:40 15,4 C 15,0 C 13,9 C 97 % 15 lf 1004,6 hPa 0,0 l/m 0 min 0 min 5 W/m 2,1 km/h (1 Bft) 95,65 %
13.06.2016 00:42 15,4 C 15,0 C 13,9 C 97 % 15 lf 1004,6 hPa 0,0 l/m 0 min 0 min 5 W/m 6,3 km/h (2 Bft) 91,49 %
13.06.2016 00:44 15,4 C 15,0 C 13,9 C 97 % 15 lf 1004,5 hPa 0,0 l/m 0 min 0 min 5 W/m 6,3 km/h (2 Bft) 93,62 %
13.06.2016 00:46 15,4 C 14,4 C 13,9 C 97 % 15 lf 1004,6 hPa 0,0 l/m 0 min 0 min 5 W/m 6,3 km/h (2 Bft) 93,62 %
13.06.2016 00:48 15,4 C 14,4 C 13,9 C 97 % 15 lf 1004,6 hPa 0,0 l/m 0 min 0 min 5 W/m 8,4 km/h (2 Bft) 91,49 %
13.06.2016 00:50 15,3 C 14,4 C 13,9 C 97 % 15 lf 1004,6 hPa 0,0 l/m 0 min 0 min 3 W/m 8,4 km/h (2 Bft) 91,49 %
13.06.2016 00:52 15,3 C 14,4 C 13,9 C 97 % 15 lf 1004,6 hPa 0,0 l/m 0 min 0 min 5 W/m 8,4 km/h (2 Bft) 91,30 %
13.06.2016 00:54 15,3 C 14,4 C 13,9 C 97 % 15 lf 1004,6 hPa 0,0 l/m 0 min 0 min 5 W/m 4,2 km/h (1 Bft) 91,49 %
13.06.2016 00:56 15,2 C 14,4 C 13,9 C 97 % 15 lf 1004,5 hPa 0,0 l/m 0 min 0 min 3 W/m 6,3 km/h (2 Bft) 95,74 %
13.06.2016 00:58 15,2 C 14,4 C 13,9 C 97 % 15 lf 1004,5 hPa 0,0 l/m 0 min 0 min 5 W/m 6,3 km/h (2 Bft) 91,49 %
13.06.2016 01:00 15,2 C 14,4 C 13,9 C 97 % 15 lf 1004,5 hPa 0,0 l/m 0 min 0 min 5 W/m 4,2 km/h (1 Bft) 93,62 %
13.06.2016 01:02 15,2 C 14,4 C 13,9 C 97 % 15 lf 1004,5 hPa 0,0 l/m 0 min 0 min 5 W/m 6,3 km/h (2 Bft) 91,49 %
13.06.2016 01:04 15,1 C 14,4 C 13,9 C 97 % 15 lf 1004,5 hPa 0,0 l/m 0 min 0 min 3 W/m 4,2 km/h (1 Bft) 93,48 %
13.06.2016 01:06 15,1 C 14,4 C 13,9 C 97 % 15 lf 1004,4 hPa 0,0 l/m 0 min 0 min 2 W/m 6,3 km/h (2 Bft) 93,62 %
13.06.2016 01:08 15,1 C 14,4 C 13,9 C 97 % 15 lf 1004,5 hPa 0,0 l/m 0 min 0 min 5 W/m 8,4 km/h (2 Bft) 93,62 %
13.06.2016 01:10 15,1 C 14,4 C 13,9 C 97 % 15 lf 1004,5 hPa 0,0 l/m 0 min 2 min 3 W/m 4,2 km/h (1 Bft) 91,49 %
13.06.2016 01:12 15,1 C 14,4 C 13,9 C 97 % 15 lf 1004,5 hPa 0,0 l/m 0 min 2 min 3 W/m 6,3 km/h (2 Bft) 91,49 %
13.06.2016 01:14 15,1 C 14,4 C 13,9 C 97 % 15 lf 1004,4 hPa 0,0 l/m 0 min 2 min 5 W/m 8,4 km/h (2 Bft) 97,87 %
13.06.2016 01:16 15,1 C 14,4 C 13,9 C 97 % 15 lf 1004,4 hPa 0,0 l/m 0 min 2 min 5 W/m 6,3 km/h (2 Bft) 97,83 %
13.06.2016 01:18 15,1 C 14,4 C 13,9 C 97 % 15 lf 1004,4 hPa 0,0 l/m 0 min 2 min 5 W/m 4,2 km/h (1 Bft) 97,87 %
13.06.2016 01:20 15,1 C 14,4 C 13,9 C 97 % 15 lf 1004,3 hPa 0,0 l/m 0 min 2 min 5 W/m 6,3 km/h (2 Bft) 100,00 %
13.06.2016 01:22 15,1 C 14,4 C 13,9 C 97 % 15 lf 1004,3 hPa 0,0 l/m 0 min 0 min 3 W/m 6,3 km/h (2 Bft) 100,00 %
13.06.2016 01:24 15,1 C 14,4 C 13,9 C 97 % 15 lf 1004,3 hPa 0,0 l/m 0 min 0 min 4 W/m 6,3 km/h (2 Bft) 95,74 %
13.06.2016 01:26 15,1 C 15,0 C 13,9 C 97 % 15 lf 1004,3 hPa 0,0 l/m 0 min 0 min 3 W/m 4,2 km/h (1 Bft) 97,87 %
13.06.2016 01:28 15,1 C 15,0 C 13,9 C 97 % 15 lf 1004,3 hPa 0,0 l/m 0 min 0 min 3 W/m 4,2 km/h (1 Bft) 95,65 %
13.06.2016 01:30 15,1 C 15,0 C 13,9 C 97 % 15 lf 1004,3 hPa 0,0 l/m 0 min 0 min 5 W/m 6,3 km/h (2 Bft) 97,87 %
13.06.2016 01:32 15,1 C 15,0 C 13,9 C 97 % 15 lf 1004,3 hPa 0,0 l/m 0 min 0 min 3 W/m 4,2 km/h (1 Bft) 97,87 %
13.06.2016 01:34 15,1 C 15,0 C 13,9 C 97 % 15 lf 1004,3 hPa 0,0 l/m 0 min 0 min 5 W/m 4,2 km/h (1 Bft) 100,00 %
13.06.2016 01:36 15,1 C 15,0 C 13,9 C 97 % 15 lf 1004,3 hPa 0,0 l/m 0 min 0 min 5 W/m 4,2 km/h (1 Bft) 100,00 %
13.06.2016 01:38 15,1 C 15,0 C 13,9 C 97 % 15 lf 1004,2 hPa 0,0 l/m 0 min 0 min 5 W/m 8,4 km/h (2 Bft) 100,00 %
13.06.2016 01:40 15,1 C 15,0 C 13,9 C 97 % 15 lf 1004,2 hPa 0,0 l/m 0 min 0 min 5 W/m 6,3 km/h (2 Bft) 100,00 %
13.06.2016 01:42 15,1 C 15,0 C 13,9 C 97 % 15 lf 1004,2 hPa 0,0 l/m 0 min 0 min 5 W/m 8,4 km/h (2 Bft) 100,00 %
13.06.2016 01:44 15,1 C 15,0 C 13,9 C 97 % 15 lf 1004,2 hPa 0,0 l/m 0 min 0 min 5 W/m 8,4 km/h (2 Bft) 93,62 %
13.06.2016 01:46 15,1 C 15,0 C 13,9 C 97 % 15 lf 1004,1 hPa 0,0 l/m 0 min 2 min 5 W/m 4,2 km/h (1 Bft) 97,87 %
13.06.2016 01:48 15,1 C 15,0 C 13,9 C 97 % 15 lf 1004,1 hPa 0,0 l/m 0 min 0 min 5 W/m 6,3 km/h (2 Bft) 95,74 %
13.06.2016 01:50 15,1 C 15,0 C 13,9 C 97 % 15 lf 1004,2 hPa 0,0 l/m 0 min 0 min 5 W/m 8,4 km/h (2 Bft) 95,74 %
13.06.2016 01:52 15,2 C 15,0 C 13,9 C 97 % 15 lf 1004,1 hPa 0,0 l/m 0 min 2 min 5 W/m 6,3 km/h (2 Bft) 97,83 %
13.06.2016 01:54 15,2 C 15,0 C 13,9 C 97 % 15 lf 1004,1 hPa 0,0 l/m 0 min 2 min 5 W/m 6,3 km/h (2 Bft) 95,74 %
13.06.2016 01:56 15,2 C 15,0 C 13,9 C 97 % 15 lf 1004,1 hPa 0,0 l/m 0 min 2 min 5 W/m 6,3 km/h (2 Bft) 97,87 %
13.06.2016 01:58 15,2 C 15,0 C 13,9 C 97 % 15 lf 1004,1 hPa 0,0 l/m 0 min 0 min 5 W/m 8,4 km/h (2 Bft) 95,74 %
13.06.2016 02:00 15,2 C 15,0 C 13,9 C 97 % 15 lf 1004,0 hPa 0,0 l/m 0 min 0 min 5 W/m 8,4 km/h (2 Bft) 95,74 %
13.06.2016 02:02 15,2 C 15,0 C 13,9 C 98 % 15 lf 1003,9 hPa 0,0 l/m 0 min 0 min 5 W/m 6,3 km/h (2 Bft) 97,83 %
13.06.2016 02:04 15,2 C 15,0 C 13,9 C 98 % 15 lf 1003,9 hPa 0,0 l/m 0 min 2 min 3 W/m 10,5 km/h (2 Bft) 95,74 %
13.06.2016 02:06 15,2 C 15,0 C 13,9 C 98 % 15 lf 1003,9 hPa 0,0 l/m 0 min 2 min 3 W/m 6,3 km/h (2 Bft) 95,74 %
13.06.2016 02:08 15,2 C 15,0 C 13,9 C 98 % 15 lf 1003,9 hPa 0,0 l/m 0 min 0 min 5 W/m 8,4 km/h (2 Bft) 97,87 %
13.06.2016 02:10 15,2 C 15,0 C 13,9 C 98 % 15 lf 1003,9 hPa 0,0 l/m 0 min 2 min 5 W/m 10,5 km/h (2 Bft) 95,74 %
13.06.2016 02:12 15,2 C 15,0 C 13,9 C 98 % 15 lf 1003,8 hPa 0,0 l/m 0 min 2 min 5 W/m 8,4 km/h (2 Bft) 97,87 %
13.06.2016 02:14 15,2 C 15,0 C 13,9 C 98 % 15 lf 1003,8 hPa 0,0 l/m 0 min 2 min 5 W/m 8,4 km/h (2 Bft) 97,83 %
13.06.2016 02:16 15,2 C 15,0 C 13,9 C 98 % 15 lf 1003,8 hPa 0,0 l/m 0 min 2 min 5 W/m 8,4 km/h (2 Bft) 95,74 %
13.06.2016 02:18 15,2 C 15,0 C 13,9 C 98 % 15 lf 1003,8 hPa 0,0 l/m 0 min 2 min 5 W/m 8,4 km/h (2 Bft) 95,74 %
13.06.2016 02:20 15,2 C 15,0 C 13,9 C 98 % 15 lf 1003,7 hPa 0,0 l/m 0 min 0 min 5 W/m 8,4 km/h (2 Bft) 97,87 %
13.06.2016 02:22 15,2 C 15,0 C 13,9 C 98 % 15 lf 1003,7 hPa 0,0 l/m 0 min 2 min 5 W/m 8,4 km/h (2 Bft) 95,74 %
13.06.2016 02:24 15,2 C 15,0 C 13,9 C 98 % 15 lf 1003,7 hPa 0,0 l/m 0 min 2 min 5 W/m 8,4 km/h (2 Bft) 97,87 %
13.06.2016 02:26 15,2 C 15,0 C 13,9 C 98 % 15 lf 1003,7 hPa 0,0 l/m 0 min 2 min 5 W/m 10,5 km/h (2 Bft) 95,65 %
13.06.2016 02:28 15,3 C 15,0 C 13,9 C 98 % 15 lf 1003,7 hPa 0,0 l/m 0 min 0 min 5 W/m 6,3 km/h (2 Bft) 93,62 %
13.06.2016 02:30 15,3 C 15,0 C 13,9 C 98 % 15 lf 1003,6 hPa 0,0 l/m 0 min 2 min 5 W/m 10,5 km/h (2 Bft) 97,87 %
13.06.2016 02:32 15,3 C 15,0 C 13,9 C 98 % 15 lf 1003,7 hPa 0,0 l/m 0 min 2 min 5 W/m 10,5 km/h (2 Bft) 95,74 %
13.06.2016 02:34 15,3 C 15,0 C 13,9 C 98 % 15 lf 1003,7 hPa 0,0 l/m 0 min 0 min 5 W/m 10,5 km/h (2 Bft) 95,74 %
13.06.2016 02:36 15,3 C 15,0 C 13,9 C 98 % 15 lf 1003,6 hPa 0,0 l/m 0 min 0 min 5 W/m 6,3 km/h (2 Bft) 93,62 %
13.06.2016 02:38 15,3 C 15,0 C 13,9 C 98 % 15 lf 1003,6 hPa 0,0 l/m 0 min 0 min 5 W/m 10,5 km/h (2 Bft) 97,83 %
13.06.2016 02:40 15,3 C 15,0 C 14,4 C 98 % 15 lf 1003,6 hPa 0,0 l/m 0 min 0 min 5 W/m 10,5 km/h (2 Bft) 97,87 %
13.06.2016 02:42 15,3 C 15,0 C 14,4 C 98 % 15 lf 1003,6 hPa 0,0 l/m 0 min 0 min 5 W/m 8,4 km/h (2 Bft) 95,74 %
13.06.2016 02:44 15,3 C 15,0 C 14,4 C 98 % 15 lf 1003,6 hPa 0,0 l/m 0 min 0 min 3 W/m 14,6 km/h (3 Bft) 95,74 %
13.06.2016 02:46 15,3 C 15,0 C 13,9 C 98 % 15 lf 1003,5 hPa 0,0 l/m 0 min 0 min 5 W/m 8,4 km/h (2 Bft) 95,74 %
13.06.2016 02:48 15,3 C 15,0 C 14,4 C 98 % 15 lf 1003,5 hPa 0,0 l/m 0 min 0 min 5 W/m 12,6 km/h (3 Bft) 97,87 %
13.06.2016 02:50 15,3 C 15,0 C 14,4 C 98 % 15 lf 1003,4 hPa 0,0 l/m 0 min 0 min 5 W/m 8,4 km/h (2 Bft) 97,83 %
13.06.2016 02:52 15,3 C 15,0 C 14,4 C 98 % 15 lf 1003,4 hPa 0,0 l/m 0 min 0 min 5 W/m 6,3 km/h (2 Bft) 95,74 %
13.06.2016 02:54 15,3 C 15,0 C 14,4 C 98 % 15 lf 1003,4 hPa 0,0 l/m 0 min 0 min 5 W/m 10,5 km/h (2 Bft) 95,74 %
13.06.2016 02:56 15,3 C 15,0 C 13,9 C 98 % 15 lf 1003,4 hPa 0,0 l/m 0 min 0 min 5 W/m 8,4 km/h (2 Bft) 97,87 %
13.06.2016 02:58 15,3 C 15,0 C 13,9 C 98 % 15 lf 1003,4 hPa 0,0 l/m 0 min 0 min 5 W/m 6,3 km/h (2 Bft) 97,87 %
13.06.2016 03:00 15,3 C 15,0 C 13,9 C 98 % 15 lf 1003,4 hPa 0,0 l/m 0 min 0 min 5 W/m 6,3 km/h (2 Bft) 97,87 %
13.06.2016 03:02 15,3 C 15,0 C 13,9 C 98 % 15 lf 1003,4 hPa 0,0 l/m 0 min 0 min 5 W/m 8,4 km/h (2 Bft) 97,83 %
13.06.2016 03:04 15,3 C 15,0 C 13,9 C 98 % 15 lf 1003,4 hPa 0,0 l/m 0 min 0 min 5 W/m 8,4 km/h (2 Bft) 97,87 %
13.06.2016 03:06 15,3 C 15,0 C 14,4 C 98 % 15 lf 1003,4 hPa 0,0 l/m 0 min 0 min 5 W/m 12,6 km/h (3 Bft) 100,00 %
13.06.2016 03:08 15,4 C 15,0 C 14,4 C 98 % 15 lf 1003,3 hPa 0,0 l/m 0 min 0 min 5 W/m 10,5 km/h (2 Bft) 93,62 %
13.06.2016 03:10 15,4 C 15,0 C 14,4 C 98 % 15 lf 1003,4 hPa 0,0 l/m 0 min 0 min 5 W/m 12,6 km/h (3 Bft) 95,74 %
13.06.2016 03:12 15,4 C 15,0 C 14,4 C 98 % 15 lf 1003,4 hPa 0,0 l/m 0 min 0 min 5 W/m 10,5 km/h (2 Bft) 100,00 %
13.06.2016 03:14 15,4 C 15,0 C 14,4 C 98 % 15 lf 1003,3 hPa 0,0 l/m 0 min 0 min 5 W/m 12,6 km/h (3 Bft) 97,83 %
13.06.2016 03:16 15,4 C 15,0 C 14,4 C 98 % 15 lf 1003,3 hPa 0,0 l/m 0 min 0 min 5 W/m 14,6 km/h (3 Bft) 97,87 %
13.06.2016 03:18 15,4 C 15,0 C 14,4 C 98 % 15 lf 1003,2 hPa 0,0 l/m 0 min 0 min 5 W/m 12,6 km/h (3 Bft) 100,00 %
13.06.2016 03:20 15,4 C 15,0 C 14,4 C 98 % 15 lf 1003,2 hPa 0,0 l/m 0 min 0 min 5 W/m 10,5 km/h (2 Bft) 100,00 %
13.06.2016 03:22 15,4 C 15,0 C 14,4 C 98 % 15 lf 1003,2 hPa 0,0 l/m 0 min 0 min 5 W/m 8,4 km/h (2 Bft) 97,87 %
13.06.2016 03:24 15,4 C 15,0 C 14,4 C 98 % 15 lf 1003,1 hPa 0,0 l/m 0 min 0 min 5 W/m 6,3 km/h (2 Bft) 95,74 %
13.06.2016 03:26 15,4 C 15,0 C 14,4 C 98 % 15 lf 1003,3 hPa 0,0 l/m 0 min 0 min 5 W/m 6,3 km/h (2 Bft) 93,48 %
13.06.2016 03:28 15,4 C 15,0 C 14,4 C 98 % 15 lf 1003,1 hPa 0,0 l/m 0 min 0 min 5 W/m 4,2 km/h (1 Bft) 95,74 %
13.06.2016 03:30 15,4 C 15,0 C 13,9 C 98 % 15 lf 1003,2 hPa 0,0 l/m 0 min 0 min 5 W/m 10,5 km/h (2 Bft) 95,74 %
13.06.2016 03:32 15,4 C 15,0 C 13,9 C 98 % 15 lf 1003,1 hPa 0,0 l/m 0 min 0 min 5 W/m 6,3 km/h (2 Bft) 97,87 %
13.06.2016 03:34 15,4 C 15,0 C 14,4 C 98 % 15 lf 1003,1 hPa 0,0 l/m 0 min 0 min 5 W/m 10,5 km/h (2 Bft) 95,74 %
13.06.2016 03:36 15,4 C 15,0 C 14,4 C 98 % 15 lf 1003,1 hPa 0,0 l/m 0 min 0 min 5 W/m 10,5 km/h (2 Bft) 97,83 %
13.06.2016 03:38 15,4 C 15,0 C 14,4 C 98 % 15 lf 1003,1 hPa 0,0 l/m 0 min 0 min 5 W/m 8,4 km/h (2 Bft) 97,87 %
13.06.2016 03:40 15,4 C 15,0 C 14,4 C 98 % 15 lf 1003,1 hPa 0,0 l/m 0 min 0 min 5 W/m 8,4 km/h (2 Bft) 97,87 %
13.06.2016 03:42 15,4 C 15,0 C 14,4 C 98 % 15 lf 1003,0 hPa 0,0 l/m 0 min 0 min 5 W/m 6,3 km/h (2 Bft) 97,87 %
13.06.2016 03:44 15,4 C 15,0 C 14,4 C 98 % 15 lf 1003,0 hPa 0,0 l/m 0 min 0 min 5 W/m 4,2 km/h (1 Bft) 97,87 %
13.06.2016 03:46 15,4 C 15,0 C 14,4 C 98 % 15 lf 1003,0 hPa 0,0 l/m 0 min 0 min 5 W/m 8,4 km/h (2 Bft) 97,87 %
13.06.2016 03:48 15,4 C 15,0 C 14,4 C 98 % 15 lf 1003,0 hPa 0,0 l/m 0 min 0 min 5 W/m 2,1 km/h (1 Bft) 95,65 %
13.06.2016 03:50 15,4 C 15,0 C 14,4 C 98 % 15 lf 1002,9 hPa 0,0 l/m 0 min 0 min 5 W/m 8,4 km/h (2 Bft) 95,74 %
13.06.2016 03:52 15,4 C 15,0 C 14,4 C 98 % 15 lf 1002,9 hPa 0,0 l/m 0 min 0 min 5 W/m 4,2 km/h (1 Bft) 95,74 %
13.06.2016 03:54 15,4 C 15,0 C 14,4 C 98 % 15 lf 1002,8 hPa 0,0 l/m 0 min 0 min 5 W/m 8,4 km/h (2 Bft) 95,74 %
13.06.2016 03:56 15,4 C 15,0 C 14,4 C 98 % 15 lf 1002,9 hPa 0,0 l/m 0 min 0 min 5 W/m 10,5 km/h (2 Bft) 93,62 %
13.06.2016 03:58 15,4 C 15,0 C 14,4 C 98 % 15 lf 1002,8 hPa 0,0 l/m 0 min 0 min 5 W/m 8,4 km/h (2 Bft) 95,74 %
13.06.2016 04:00 15,4 C 15,0 C 14,4 C 98 % 15 lf 1002,8 hPa 0,0 l/m 0 min 0 min 5 W/m 10,5 km/h (2 Bft) 93,48 %
13.06.2016 04:02 15,4 C 15,0 C 14,4 C 98 % 15 lf 1002,7 hPa 0,0 l/m 0 min 0 min 5 W/m 6,3 km/h (2 Bft) 100,00 %
13.06.2016 04:04 15,4 C 15,0 C 14,4 C 98 % 15 lf 1002,7 hPa 0,0 l/m 0 min 0 min 5 W/m 10,5 km/h (2 Bft) 95,74 %
13.06.2016 04:06 15,4 C 15,0 C 14,4 C 98 % 15 lf 1002,7 hPa 0,0 l/m 0 min 0 min 5 W/m 6,3 km/h (2 Bft) 100,00 %
13.06.2016 04:08 15,4 C 15,0 C 14,4 C 98 % 15 lf 1002,7 hPa 0,0 l/m 0 min 0 min 5 W/m 6,3 km/h (2 Bft) 100,00 %
13.06.2016 04:10 15,4 C 15,0 C 14,4 C 98 % 15 lf 1002,7 hPa 0,0 l/m 0 min 0 min 5 W/m 6,3 km/h (2 Bft) 91,49 %
13.06.2016 04:12 15,4 C 15,0 C 14,4 C 98 % 15 lf 1002,7 hPa 0,0 l/m 0 min 0 min 5 W/m 8,4 km/h (2 Bft) 95,65 %
13.06.2016 04:14 15,4 C 15,0 C 14,4 C 98 % 15 lf 1002,7 hPa 0,0 l/m 0 min 0 min 5 W/m 10,5 km/h (2 Bft) 93,62 %
13.06.2016 04:16 15,4 C 15,0 C 14,4 C 98 % 15 lf 1002,7 hPa 0,0 l/m 0 min 0 min 5 W/m 8,4 km/h (2 Bft) 95,74 %
13.06.2016 04:18 15,4 C 15,0 C 14,4 C 98 % 15 lf 1002,6 hPa 0,0 l/m 0 min 0 min 5 W/m 8,4 km/h (2 Bft) 93,62 %
13.06.2016 04:20 15,4 C 15,0 C 14,4 C 98 % 15 lf 1002,7 hPa 0,0 l/m 0 min 0 min 5 W/m 4,2 km/h (1 Bft) 95,74 %
13.06.2016 04:22 15,4 C 15,0 C 14,4 C 98 % 15 lf 1002,7 hPa 0,0 l/m 0 min 0 min 5 W/m 8,4 km/h (2 Bft) 95,74 %
13.06.2016 04:24 15,4 C 15,0 C 14,4 C 98 % 15 lf 1002,6 hPa 0,0 l/m 0 min 0 min 5 W/m 8,4 km/h (2 Bft) 97,83 %
13.06.2016 04:26 15,4 C 15,0 C 14,4 C 98 % 15 lf 1002,6 hPa 0,0 l/m 0 min 0 min 5 W/m 6,3 km/h (2 Bft) 95,74 %
13.06.2016 04:28 15,4 C 15,0 C 14,4 C 98 % 15 lf 1002,7 hPa 0,0 l/m 0 min 0 min 5 W/m 6,3 km/h (2 Bft) 97,87 %
13.06.2016 04:30 15,4 C 15,0 C 14,4 C 98 % 15 lf 1002,7 hPa 0,0 l/m 0 min 0 min 5 W/m 6,3 km/h (2 Bft) 95,74 %
13.06.2016 04:32 15,4 C 15,0 C 14,4 C 98 % 15 lf 1002,6 hPa 0,0 l/m 0 min 0 min 5 W/m 6,3 km/h (2 Bft) 93,62 %
13.06.2016 04:34 15,4 C 15,0 C 14,4 C 98 % 15 lf 1002,6 hPa 0,0 l/m 0 min 0 min 5 W/m 4,2 km/h (1 Bft) 93,62 %
13.06.2016 04:36 15,4 C 15,0 C 14,4 C 98 % 15 lf 1002,7 hPa 0,0 l/m 0 min 0 min 5 W/m 4,2 km/h (1 Bft) 91,30 %
13.06.2016 04:38 15,4 C 15,0 C 14,4 C 98 % 15 lf 1002,6 hPa 0,0 l/m 0 min 0 min 5 W/m 4,2 km/h (1 Bft) 91,49 %
13.06.2016 04:40 15,4 C 15,0 C 14,4 C 98 % 15 lf 1002,6 hPa 0,0 l/m 0 min 0 min 5 W/m 6,3 km/h (2 Bft) 93,62 %
13.06.2016 04:42 15,4 C 15,0 C 14,4 C 98 % 15 lf 1002,6 hPa 0,0 l/m 0 min 0 min 5 W/m 4,2 km/h (1 Bft) 93,62 %
13.06.2016 04:44 15,4 C 15,0 C 14,4 C 98 % 15 lf 1002,6 hPa 0,0 l/m 0 min 0 min 5 W/m 4,2 km/h (1 Bft) 91,49 %
13.06.2016 04:46 15,4 C 15,0 C 14,4 C 98 % 15 lf 1002,6 hPa 0,0 l/m 0 min 0 min 5 W/m 4,2 km/h (1 Bft) 91,30 %
13.06.2016 04:48 15,4 C 15,0 C 14,4 C 98 % 15 lf 1002,6 hPa 0,0 l/m 0 min 0 min 5 W/m 4,2 km/h (1 Bft) 93,62 %
13.06.2016 04:50 15,4 C 15,0 C 14,4 C 98 % 15 lf 1002,5 hPa 0,0 l/m 0 min 0 min 5 W/m 4,2 km/h (1 Bft) 91,49 %
13.06.2016 04:52 15,4 C 15,0 C 14,4 C 98 % 15 lf 1002,6 hPa 0,0 l/m 0 min 0 min 5 W/m 6,3 km/h (2 Bft) 93,62 %
13.06.2016 04:54 15,4 C 15,0 C 14,4 C 98 % 15 lf 1002,5 hPa 0,0 l/m 0 min 0 min 5 W/m 2,1 km/h (1 Bft) 95,74 %
13.06.2016 04:56 15,5 C 15,0 C 14,4 C 98 % 15 lf 1002,5 hPa 0,0 l/m 0 min 0 min 5 W/m 6,3 km/h (2 Bft) 93,62 %
13.06.2016 04:58 15,5 C 15,0 C 14,4 C 98 % 15 lf 1002,5 hPa 0,0 l/m 0 min 0 min 5 W/m 8,4 km/h (2 Bft) 95,65 %
13.06.2016 05:00 15,5 C 15,0 C 14,4 C 98 % 15 lf 1002,4 hPa 0,0 l/m 0 min 0 min 5 W/m 4,2 km/h (1 Bft) 95,74 %
13.06.2016 05:02 15,5 C 15,0 C 14,4 C 98 % 15 lf 1002,4 hPa 0,0 l/m 0 min 0 min 5 W/m 8,4 km/h (2 Bft) 95,74 %
13.06.2016 05:04 15,5 C 15,0 C 14,4 C 98 % 15 lf 1002,5 hPa 0,0 l/m 0 min 0 min 5 W/m 8,4 km/h (2 Bft) 93,62 %
13.06.2016 05:06 15,5 C 15,0 C 14,4 C 98 % 15 lf 1002,4 hPa 0,0 l/m 0 min 0 min 5 W/m 4,2 km/h (1 Bft) 97,87 %
13.06.2016 05:08 15,5 C 15,0 C 14,4 C 98 % 15 lf 1002,4 hPa 0,0 l/m 0 min 0 min 5 W/m 4,2 km/h (1 Bft) 97,87 %
13.06.2016 05:10 15,5 C 15,0 C 14,4 C 98 % 15 lf 1002,4 hPa 0,0 l/m 0 min 0 min 5 W/m 6,3 km/h (2 Bft) 95,65 %
13.06.2016 05:12 15,5 C 15,0 C 14,4 C 98 % 15 lf 1002,3 hPa 0,0 l/m 0 min 0 min 5 W/m 6,3 km/h (2 Bft) 95,74 %
13.06.2016 05:14 15,5 C 15,0 C 14,4 C 98 % 15 lf 1002,3 hPa 0,0 l/m 0 min 0 min 5 W/m 4,2 km/h (1 Bft) 95,74 %
13.06.2016 05:16 15,5 C 15,0 C 14,4 C 98 % 15 lf 1002,3 hPa 0,0 l/m 0 min 0 min 5 W/m 4,2 km/h (1 Bft) 95,74 %
13.06.2016 05:18 15,5 C 15,0 C 14,4 C 98 % 15 lf 1002,3 hPa 0,0 l/m 0 min 0 min 5 W/m 6,3 km/h (2 Bft) 97,87 %
13.06.2016 05:20 15,5 C 15,0 C 14,4 C 98 % 15 lf 1002,3 hPa 0,0 l/m 0 min 0 min 5 W/m 6,3 km/h (2 Bft) 95,74 %
13.06.2016 05:22 15,5 C 15,0 C 14,4 C 98 % 15 lf 1002,3 hPa 0,0 l/m 0 min 0 min 5 W/m 10,5 km/h (2 Bft) 93,48 %
13.06.2016 05:24 15,5 C 15,0 C 14,4 C 98 % 15 lf 1002,2 hPa 0,0 l/m 0 min 0 min 5 W/m 6,3 km/h (2 Bft) 100,00 %
13.06.2016 05:26 15,5 C 15,0 C 14,4 C 98 % 15 lf 1002,2 hPa 0,0 l/m 0 min 0 min 6 W/m 6,3 km/h (2 Bft) 97,87 %
13.06.2016 05:28 15,5 C 15,0 C 14,4 C 98 % 15 lf 1002,2 hPa 0,0 l/m 0 min 0 min 7 W/m 8,4 km/h (2 Bft) 100,00 %
13.06.2016 05:30 15,5 C 15,0 C 14,4 C 98 % 15 lf 1002,2 hPa 0,0 l/m 0 min 0 min 8 W/m 6,3 km/h (2 Bft) 97,87 %
13.06.2016 05:32 15,5 C 15,0 C 14,4 C 98 % 15 lf 1002,2 hPa 0,0 l/m 0 min 0 min 9 W/m 10,5 km/h (2 Bft) 100,00 %
13.06.2016 05:34 15,5 C 15,0 C 14,4 C 98 % 15 lf 1002,2 hPa 0,0 l/m 0 min 0 min 9 W/m 12,6 km/h (3 Bft) 100,00 %
13.06.2016 05:36 15,5 C 15,0 C 14,4 C 98 % 15 lf 1002,2 hPa 0,0 l/m 0 min 0 min 11 W/m 12,6 km/h (3 Bft) 97,87 %
13.06.2016 05:38 15,5 C 15,0 C 14,4 C 98 % 15 lf 1002,2 hPa 0,0 l/m 0 min 0 min 10 W/m 12,6 km/h (3 Bft) 100,00 %
13.06.2016 05:40 15,4 C 15,0 C 14,4 C 98 % 15 lf 1002,1 hPa 0,0 l/m 0 min 0 min 11 W/m 8,4 km/h (2 Bft) 100,00 %
13.06.2016 05:42 15,4 C 15,0 C 14,4 C 98 % 15 lf 1002,1 hPa 0,0 l/m 0 min 0 min 12 W/m 10,5 km/h (2 Bft) 97,87 %
13.06.2016 05:44 15,4 C 15,0 C 14,4 C 98 % 15 lf 1002,1 hPa 0,0 l/m 0 min 0 min 13 W/m 12,6 km/h (3 Bft) 95,74 %
13.06.2016 05:46 15,4 C 15,0 C 14,4 C 98 % 15 lf 1002,1 hPa 0,0 l/m 0 min 0 min 14 W/m 10,5 km/h (2 Bft) 97,83 %
13.06.2016 05:48 15,4 C 15,0 C 14,4 C 98 % 15 lf 1002,1 hPa 0,0 l/m 0 min 0 min 16 W/m 14,6 km/h (3 Bft) 100,00 %
13.06.2016 05:50 15,4 C 15,0 C 14,4 C 98 % 15 lf 1002,1 hPa 0,0 l/m 0 min 0 min 16 W/m 10,5 km/h (2 Bft) 100,00 %
13.06.2016 05:52 15,4 C 15,0 C 14,4 C 98 % 15 lf 1002,1 hPa 0,0 l/m 0 min 0 min 16 W/m 10,5 km/h (2 Bft) 97,87 %
13.06.2016 05:54 15,4 C 15,0 C 14,4 C 98 % 15 lf 1002,1 hPa 0,0 l/m 0 min 0 min 18 W/m 12,6 km/h (3 Bft) 97,87 %
13.06.2016 05:56 15,4 C 15,0 C 14,4 C 98 % 15 lf 1002,0 hPa 0,0 l/m 0 min 0 min 19 W/m 10,5 km/h (2 Bft) 100,00 %
13.06.2016 05:58 15,3 C 15,0 C 14,4 C 98 % 15 lf 1002,0 hPa 0,0 l/m 0 min 0 min 19 W/m 12,6 km/h (3 Bft) 97,87 %
13.06.2016 06:00 15,3 C 15,0 C 14,4 C 98 % 15 lf 1002,0 hPa 0,0 l/m 0 min 0 min 19 W/m 12,6 km/h (3 Bft) 97,87 %
13.06.2016 06:02 15,3 C 15,0 C 14,4 C 98 % 15 lf 1002,1 hPa 0,0 l/m 0 min 0 min 21 W/m 12,6 km/h (3 Bft) 97,87 %
13.06.2016 06:04 15,3 C 15,0 C 14,4 C 98 % 15 lf 1002,0 hPa 0,0 l/m 0 min 0 min 22 W/m 10,5 km/h (2 Bft) 100,00 %
13.06.2016 06:06 15,3 C 15,0 C 14,4 C 98 % 15 lf 1002,0 hPa 0,0 l/m 0 min 0 min 26 W/m 12,6 km/h (3 Bft) 100,00 %
13.06.2016 06:08 15,3 C 15,0 C 14,4 C 98 % 15 lf 1002,0 hPa 0,0 l/m 0 min 0 min 25 W/m 8,4 km/h (2 Bft) 100,00 %
13.06.2016 06:10 15,3 C 15,0 C 14,4 C 98 % 15 lf 1002,0 hPa 0,0 l/m 0 min 0 min 23 W/m 16,7 km/h (3 Bft) 97,87 %
13.06.2016 06:12 15,3 C 15,0 C 14,4 C 98 % 15 lf 1002,0 hPa 0,0 l/m 0 min 0 min 27 W/m 12,6 km/h (3 Bft) 95,74 %
13.06.2016 06:14 15,3 C 15,0 C 14,4 C 98 % 15 lf 1002,0 hPa 0,0 l/m 0 min 0 min 34 W/m 10,5 km/h (2 Bft) 97,87 %
13.06.2016 06:16 15,3 C 15,0 C 14,4 C 98 % 15 lf 1002,0 hPa 0,0 l/m 0 min 0 min 46 W/m 14,6 km/h (3 Bft) 97,87 %
13.06.2016 06:18 15,3 C 15,0 C 14,4 C 98 % 15 lf 1001,9 hPa 0,0 l/m 0 min 0 min 57 W/m 10,5 km/h (2 Bft) 93,62 %
13.06.2016 06:20 15,3 C 15,0 C 14,4 C 98 % 15 lf 1002,0 hPa 0,0 l/m 0 min 0 min 57 W/m 12,6 km/h (3 Bft) 97,83 %
13.06.2016 06:22 15,3 C 15,0 C 14,4 C 98 % 15 lf 1002,0 hPa 0,0 l/m 0 min 0 min 48 W/m 8,4 km/h (2 Bft) 93,62 %
13.06.2016 06:24 15,3 C 15,0 C 14,4 C 98 % 15 lf 1002,0 hPa 0,0 l/m 0 min 0 min 46 W/m 10,5 km/h (2 Bft) 95,74 %
13.06.2016 06:26 15,3 C 15,0 C 14,4 C 98 % 15 lf 1002,0 hPa 0,0 l/m 0 min 0 min 45 W/m 10,5 km/h (2 Bft) 95,74 %
13.06.2016 06:28 15,2 C 15,0 C 14,4 C 98 % 15 lf 1002,0 hPa 0,0 l/m 0 min 0 min 41 W/m 12,6 km/h (3 Bft) 95,74 %
13.06.2016 06:30 15,2 C 15,0 C 14,4 C 98 % 14 lf 1001,9 hPa 0,0 l/m 0 min 0 min 38 W/m 14,6 km/h (3 Bft) 95,74 %
13.06.2016 06:32 15,2 C 15,0 C 14,4 C 98 % 14 lf 1002,0 hPa 0,0 l/m 0 min 0 min 35 W/m 12,6 km/h (3 Bft) 95,65 %
13.06.2016 06:34 15,2 C 15,0 C 14,4 C 98 % 14 lf 1001,9 hPa 0,0 l/m 0 min 0 min 35 W/m 12,6 km/h (3 Bft) 91,49 %
13.06.2016 06:36 15,2 C 15,0 C 14,4 C 98 % 14 lf 1002,0 hPa 0,0 l/m 0 min 0 min 34 W/m 12,6 km/h (3 Bft) 93,62 %
13.06.2016 06:38 15,2 C 15,0 C 14,4 C 98 % 13 lf 1001,9 hPa 0,0 l/m 0 min 0 min 32 W/m 12,6 km/h (3 Bft) 95,74 %
13.06.2016 06:40 15,2 C 15,0 C 14,4 C 98 % 13 lf 1002,0 hPa 0,0 l/m 0 min 0 min 27 W/m 12,6 km/h (3 Bft) 93,62 %
13.06.2016 06:42 15,2 C 15,0 C 14,4 C 98 % 13 lf 1001,9 hPa 0,0 l/m 0 min 0 min 26 W/m 14,6 km/h (3 Bft) 95,74 %
13.06.2016 06:44 15,2 C 15,0 C 13,9 C 98 % 13 lf 1001,8 hPa 0,0 l/m 0 min 0 min 27 W/m 14,6 km/h (3 Bft) 95,65 %
13.06.2016 06:46 15,2 C 15,0 C 13,9 C 98 % 13 lf 1001,9 hPa 0,0 l/m 0 min 0 min 25 W/m 14,6 km/h (3 Bft) 91,49 %
13.06.2016 06:48 15,1 C 15,0 C 13,9 C 98 % 12 lf 1001,9 hPa 0,0 l/m 0 min 0 min 24 W/m 14,6 km/h (3 Bft) 95,74 %
13.06.2016 06:50 15,1 C 15,0 C 13,9 C 98 % 12 lf 1001,8 hPa 0,0 l/m 0 min 0 min 23 W/m 14,6 km/h (3 Bft) 95,74 %
13.06.2016 06:52 15,1 C 15,0 C 13,9 C 98 % 12 lf 1001,9 hPa 0,0 l/m 0 min 0 min 22 W/m 10,5 km/h (2 Bft) 95,74 %
13.06.2016 06:54 15,1 C 15,0 C 13,9 C 98 % 11 lf 1001,9 hPa 0,0 l/m 0 min 0 min 22 W/m 8,4 km/h (2 Bft) 93,62 %
13.06.2016 06:56 15,1 C 15,0 C 13,9 C 98 % 11 lf 1002,0 hPa 0,0 l/m 0 min 0 min 25 W/m 14,6 km/h (3 Bft) 97,83 %
13.06.2016 06:58 15,1 C 15,0 C 13,9 C 98 % 10 lf 1001,9 hPa 0,0 l/m 0 min 0 min 28 W/m 10,5 km/h (2 Bft) 97,87 %
13.06.2016 07:00 15,1 C 15,0 C 13,9 C 98 % 10 lf 1001,9 hPa 0,0 l/m 0 min 0 min 27 W/m 12,6 km/h (3 Bft) 97,87 %
13.06.2016 07:02 15,1 C 15,0 C 13,9 C 98 % 10 lf 1001,9 hPa 0,0 l/m 0 min 0 min 26 W/m 10,5 km/h (2 Bft) 95,74 %
13.06.2016 07:04 15,0 C 15,0 C 13,9 C 98 % 9 lf 1001,9 hPa 0,0 l/m 0 min 0 min 25 W/m 12,6 km/h (3 Bft) 95,74 %
13.06.2016 07:06 15,0 C 15,0 C 13,9 C 98 % 9 lf 1002,0 hPa 0,0 l/m 0 min 0 min 24 W/m 16,7 km/h (3 Bft) 97,87 %
13.06.2016 07:08 15,0 C 15,0 C 13,9 C 98 % 8 lf 1002,0 hPa 0,0 l/m 0 min 0 min 23 W/m 14,6 km/h (3 Bft) 95,65 %
13.06.2016 07:10 15,0 C 15,0 C 13,9 C 98 % 7 lf 1001,8 hPa 0,0 l/m 0 min 0 min 25 W/m 12,6 km/h (3 Bft) 100,00 %
13.06.2016 07:12 15,0 C 15,0 C 14,4 C 98 % 7 lf 1001,8 hPa 0,0 l/m 0 min 0 min 26 W/m 10,5 km/h (2 Bft) 100,00 %
13.06.2016 07:14 15,0 C 15,0 C 14,4 C 98 % 6 lf 1001,8 hPa 0,0 l/m 0 min 0 min 28 W/m 16,7 km/h (3 Bft) 100,00 %
13.06.2016 07:16 15,0 C 15,0 C 14,4 C 98 % 5 lf 1001,8 hPa 0,0 l/m 0 min 0 min 29 W/m 12,6 km/h (3 Bft) 100,00 %
13.06.2016 07:18 15,0 C 15,0 C 14,4 C 98 % 4 lf 1001,8 hPa 0,0 l/m 0 min 0 min 31 W/m 8,4 km/h (2 Bft) 100,00 %
13.06.2016 07:20 15,0 C 15,0 C 14,4 C 98 % 4 lf 1001,8 hPa 0,0 l/m 0 min 0 min 32 W/m 10,5 km/h (2 Bft) 95,65 %
13.06.2016 07:22 15,0 C 15,0 C 14,4 C 98 % 4 lf 1001,8 hPa 0,0 l/m 0 min 0 min 35 W/m 8,4 km/h (2 Bft) 100,00 %
13.06.2016 07:24 15,0 C 15,0 C 14,4 C 98 % 3 lf 1001,8 hPa 0,0 l/m 0 min 0 min 41 W/m 10,5 km/h (2 Bft) 100,00 %
13.06.2016 07:26 15,1 C 15,0 C 14,4 C 98 % 3 lf 1001,7 hPa 0,0 l/m 0 min 0 min 48 W/m 10,5 km/h (2 Bft) 100,00 %
13.06.2016 07:28 15,1 C 15,0 C 14,4 C 98 % 3 lf 1001,8 hPa 0,0 l/m 0 min 0 min 51 W/m 12,6 km/h (3 Bft) 93,62 %
13.06.2016 07:30 15,1 C 15,0 C 14,4 C 98 % 2 lf 1001,8 hPa 0,0 l/m 0 min 0 min 56 W/m 8,4 km/h (2 Bft) 93,48 %
13.06.2016 07:32 15,1 C 15,0 C 14,4 C 98 % 2 lf 1001,8 hPa 0,0 l/m 0 min 0 min 60 W/m 10,5 km/h (2 Bft) 97,87 %
13.06.2016 07:34 15,1 C 15,0 C 14,4 C 98 % 2 lf 1001,7 hPa 0,0 l/m 0 min 0 min 57 W/m 8,4 km/h (2 Bft) 97,87 %
13.06.2016 07:36 15,1 C 15,0 C 14,4 C 98 % 1 lf 1001,6 hPa 0,0 l/m 0 min 0 min 49 W/m 8,4 km/h (2 Bft) 95,74 %
13.06.2016 07:38 15,1 C 15,0 C 14,4 C 98 % 1 lf 1001,8 hPa 0,0 l/m 0 min 0 min 46 W/m 10,5 km/h (2 Bft) 95,74 %
13.06.2016 07:40 15,1 C 15,0 C 14,4 C 98 % 1 lf 1001,8 hPa 0,0 l/m 0 min 0 min 59 W/m 12,6 km/h (3 Bft) 93,62 %
13.06.2016 07:42 15,1 C 15,6 C 14,4 C 98 % 1 lf 1001,8 hPa 0,0 l/m 0 min 0 min 71 W/m 8,4 km/h (2 Bft) 95,65 %
13.06.2016 07:44 15,1 C 15,6 C 15,0 C 98 % 1 lf 1001,7 hPa 0,0 l/m 0 min 0 min 78 W/m 6,3 km/h (2 Bft) 95,74 %
13.06.2016 07:46 15,2 C 15,6 C 15,0 C 98 % 1 lf 1001,6 hPa 0,0 l/m 0 min 0 min 76 W/m 16,7 km/h (3 Bft) 95,74 %
13.06.2016 07:48 15,2 C 15,6 C 15,0 C 98 % 1 lf 1001,6 hPa 0,0 l/m 0 min 0 min 70 W/m 14,6 km/h (3 Bft) 91,49 %
13.06.2016 07:50 15,2 C 15,6 C 15,0 C 98 % 1 lf 1001,6 hPa 0,0 l/m 0 min 0 min 59 W/m 12,6 km/h (3 Bft) 93,62 %
13.06.2016 07:52 15,2 C 15,6 C 15,0 C 98 % 1 lf 1001,6 hPa 0,0 l/m 0 min 0 min 58 W/m 12,6 km/h (3 Bft) 95,74 %
13.06.2016 07:54 15,2 C 15,6 C 15,0 C 98 % 1 lf 1001,7 hPa 0,0 l/m 0 min 0 min 62 W/m 12,6 km/h (3 Bft) 93,48 %
13.06.2016 07:56 15,2 C 15,6 C 15,0 C 98 % 1 lf 1001,6 hPa 0,0 l/m 0 min 0 min 59 W/m 8,4 km/h (2 Bft) 95,74 %
13.06.2016 07:58 15,3 C 15,6 C 15,0 C 98 % 1 lf 1001,6 hPa 0,0 l/m 0 min 0 min 67 W/m 14,6 km/h (3 Bft) 93,62 %
13.06.2016 08:00 15,3 C 15,6 C 15,0 C 98 % 1 lf 1001,6 hPa 0,0 l/m 0 min 0 min 71 W/m 6,3 km/h (2 Bft) 93,62 %
13.06.2016 08:02 15,3 C 15,6 C 15,0 C 98 % 1 lf 1001,5 hPa 0,0 l/m 0 min 0 min 69 W/m 12,6 km/h (3 Bft) 93,62 %
13.06.2016 08:04 15,3 C 15,6 C 15,0 C 98 % 1 lf 1001,6 hPa 0,0 l/m 0 min 0 min 71 W/m 14,6 km/h (3 Bft) 95,74 %
13.06.2016 08:06 15,3 C 15,6 C 15,0 C 98 % 2 lf 1001,6 hPa 0,0 l/m 0 min 0 min 74 W/m 12,6 km/h (3 Bft) 95,65 %
13.06.2016 08:08 15,4 C 15,6 C 15,0 C 98 % 2 lf 1001,7 hPa 0,0 l/m 0 min 0 min 71 W/m 14,6 km/h (3 Bft) 95,74 %
13.06.2016 08:10 15,4 C 15,6 C 15,0 C 98 % 3 lf 1001,6 hPa 0,0 l/m 0 min 0 min 74 W/m 10,5 km/h (2 Bft) 91,49 %
13.06.2016 08:12 15,4 C 15,6 C 15,0 C 98 % 10 lf 1001,7 hPa 0,0 l/m 0 min 0 min 74 W/m 10,5 km/h (2 Bft) 93,62 %
13.06.2016 08:14 15,4 C 15,6 C 15,0 C 98 % 14 lf 1001,6 hPa 0,0 l/m 0 min 2 min 87 W/m 10,5 km/h (2 Bft) 89,36 %
13.06.2016 08:16 15,4 C 15,6 C 15,0 C 98 % 15 lf 1001,6 hPa 0,0 l/m 0 min 2 min 96 W/m 14,6 km/h (3 Bft) 95,74 %
13.06.2016 08:18 15,4 C 15,6 C 15,0 C 98 % 15 lf 1001,5 hPa 0,0 l/m 0 min 0 min 99 W/m 14,6 km/h (3 Bft) 95,65 %
13.06.2016 08:20 15,4 C 15,6 C 15,0 C 98 % 15 lf 1001,6 hPa 0,0 l/m 0 min 0 min 95 W/m 10,5 km/h (2 Bft) 95,74 %
13.06.2016 08:22 15,4 C 15,6 C 15,0 C 98 % 15 lf 1001,6 hPa 0,0 l/m 0 min 0 min 99 W/m 12,6 km/h (3 Bft) 91,49 %
13.06.2016 08:24 15,4 C 15,6 C 15,0 C 98 % 15 lf 1001,6 hPa 0,0 l/m 0 min 2 min 80 W/m 8,4 km/h (2 Bft) 95,74 %
13.06.2016 08:26 15,5 C 15,6 C 15,0 C 98 % 15 lf 1001,6 hPa 0,0 l/m 0 min 2 min 53 W/m 8,4 km/h (2 Bft) 93,62 %
13.06.2016 08:28 15,5 C 15,6 C 14,4 C 98 % 15 lf 1001,6 hPa 0,2 l/m 0 min 2 min 50 W/m 10,5 km/h (2 Bft) 95,74 %
13.06.2016 08:30 15,5 C 15,6 C 15,0 C 98 % 15 lf 1001,6 hPa 0,0 l/m 0 min 2 min 47 W/m 8,4 km/h (2 Bft) 95,65 %
13.06.2016 08:32 15,5 C 15,0 C 14,4 C 98 % 15 lf 1001,7 hPa 0,0 l/m 0 min 2 min 42 W/m 16,7 km/h (3 Bft) 95,74 %
13.06.2016 08:34 15,4 C 15,0 C 14,4 C 98 % 15 lf 1001,6 hPa 0,2 l/m 0 min 2 min 41 W/m 16,7 km/h (3 Bft) 93,62 %
13.06.2016 08:36 15,4 C 15,0 C 14,4 C 98 % 15 lf 1001,5 hPa 0,0 l/m 0 min 2 min 40 W/m 10,5 km/h (2 Bft) 93,62 %
13.06.2016 08:38 15,4 C 15,0 C 14,4 C 98 % 15 lf 1001,5 hPa 0,2 l/m 0 min 2 min 44 W/m 10,5 km/h (2 Bft) 95,74 %
13.06.2016 08:40 15,4 C 15,0 C 14,4 C 98 % 15 lf 1001,5 hPa 0,0 l/m 0 min 2 min 47 W/m 8,4 km/h (2 Bft) 95,65 %
13.06.2016 08:42 15,4 C 15,0 C 14,4 C 98 % 15 lf 1001,5 hPa 0,2 l/m 0 min 2 min 52 W/m 10,5 km/h (2 Bft) 97,87 %
13.06.2016 08:44 15,4 C 15,0 C 14,4 C 98 % 15 lf 1001,5 hPa 0,0 l/m 0 min 2 min 68 W/m 6,3 km/h (2 Bft) 93,62 %
13.06.2016 08:46 15,4 C 15,0 C 14,4 C 98 % 15 lf 1001,5 hPa 0,0 l/m 0 min 2 min 86 W/m 8,4 km/h (2 Bft) 95,74 %
13.06.2016 08:48 15,4 C 15,0 C 14,4 C 98 % 15 lf 1001,5 hPa 0,0 l/m 0 min 0 min 109 W/m 8,4 km/h (2 Bft) 97,87 %
13.06.2016 08:50 15,4 C 15,6 C 15,0 C 98 % 15 lf 1001,5 hPa 0,0 l/m 0 min 0 min 114 W/m 6,3 km/h (2 Bft) 95,74 %
13.06.2016 08:52 15,4 C 15,6 C 15,0 C 98 % 15 lf 1001,5 hPa 0,0 l/m 0 min 0 min 120 W/m 4,2 km/h (1 Bft) 97,83 %
13.06.2016 08:54 15,4 C 15,6 C 15,0 C 98 % 15 lf 1001,5 hPa 0,0 l/m 0 min 0 min 126 W/m 6,3 km/h (2 Bft) 97,87 %
13.06.2016 08:56 15,4 C 16,1 C 15,6 C 98 % 15 lf 1001,5 hPa 0,0 l/m 0 min 0 min 123 W/m 6,3 km/h (2 Bft) 100,00 %
13.06.2016 08:58 15,5 C 16,1 C 15,6 C 98 % 15 lf 1001,4 hPa 0,0 l/m 0 min 0 min 121 W/m 6,3 km/h (2 Bft) 91,49 %
13.06.2016 09:00 15,6 C 16,1 C 15,6 C 98 % 15 lf 1001,4 hPa 0,0 l/m 0 min 0 min 122 W/m 8,4 km/h (2 Bft) 100,00 %
13.06.2016 09:02 15,6 C 16,1 C 15,0 C 98 % 15 lf 1001,4 hPa 0,0 l/m 0 min 0 min 119 W/m 14,6 km/h (3 Bft) 97,87 %
13.06.2016 09:04 15,6 C 16,1 C 15,6 C 98 % 15 lf 1001,4 hPa 0,0 l/m 0 min 0 min 128 W/m 6,3 km/h (2 Bft) 93,48 %
13.06.2016 09:06 15,7 C 16,1 C 15,6 C 98 % 15 lf 1001,4 hPa 0,0 l/m 0 min 0 min 144 W/m 8,4 km/h (2 Bft) 97,87 %
13.06.2016 09:08 15,7 C 16,1 C 15,6 C 98 % 15 lf 1001,4 hPa 0,0 l/m 0 min 0 min 156 W/m 10,5 km/h (2 Bft) 100,00 %
13.06.2016 09:10 15,7 C 16,7 C 16,1 C 98 % 15 lf 1001,4 hPa 0,0 l/m 0 min 0 min 167 W/m 12,6 km/h (3 Bft) 97,87 %
13.06.2016 09:12 15,8 C 16,1 C 16,1 C 98 % 15 lf 1001,4 hPa 0,0 l/m 0 min 0 min 177 W/m 10,5 km/h (2 Bft) 100,00 %
13.06.2016 09:14 15,8 C 16,7 C 16,1 C 98 % 15 lf 1001,4 hPa 0,0 l/m 0 min 0 min 185 W/m 10,5 km/h (2 Bft) 97,87 %
13.06.2016 09:16 15,8 C 16,1 C 16,1 C 98 % 15 lf 1001,4 hPa 0,0 l/m 0 min 0 min 181 W/m 10,5 km/h (2 Bft) 95,65 %
13.06.2016 09:18 15,8 C 16,1 C 16,1 C 98 % 15 lf 1001,4 hPa 0,0 l/m 0 min 0 min 149 W/m 6,3 km/h (2 Bft) 97,87 %
13.06.2016 09:20 15,8 C 16,1 C 16,1 C 98 % 15 lf 1001,4 hPa 0,0 l/m 0 min 0 min 121 W/m 10,5 km/h (2 Bft) 93,62 %
13.06.2016 09:22 15,9 C 16,1 C 15,6 C 98 % 15 lf 1001,4 hPa 0,0 l/m 0 min 0 min 126 W/m 10,5 km/h (2 Bft) 93,62 %
13.06.2016 09:24 15,8 C 16,1 C 15,6 C 98 % 15 lf 1001,4 hPa 0,0 l/m 0 min 0 min 109 W/m 12,6 km/h (3 Bft) 97,87 %
13.06.2016 09:26 15,8 C 16,1 C 15,6 C 98 % 15 lf 1001,4 hPa 0,0 l/m 0 min 0 min 79 W/m 6,3 km/h (2 Bft) 97,87 %
13.06.2016 09:28 15,8 C 15,6 C 15,0 C 98 % 15 lf 1001,3 hPa 0,0 l/m 0 min 0 min 72 W/m 10,5 km/h (2 Bft) 97,83 %
13.06.2016 09:30 15,8 C 15,6 C 15,0 C 98 % 15 lf 1001,3 hPa 0,0 l/m 0 min 0 min 76 W/m 10,5 km/h (2 Bft) 97,87 %
13.06.2016 09:32 15,8 C 15,6 C 15,0 C 98 % 15 lf 1001,3 hPa 0,0 l/m 0 min 0 min 80 W/m 8,4 km/h (2 Bft) 97,87 %
13.06.2016 09:34 15,8 C 16,1 C 15,0 C 98 % 15 lf 1001,3 hPa 0,0 l/m 0 min 0 min 113 W/m 8,4 km/h (2 Bft) 97,87 %
13.06.2016 09:36 15,8 C 16,7 C 15,6 C 98 % 15 lf 1001,3 hPa 0,0 l/m 0 min 0 min 186 W/m 14,6 km/h (3 Bft) 97,87 %
13.06.2016 09:38 15,8 C 16,1 C 16,1 C 98 % 15 lf 1001,3 hPa 0,0 l/m 0 min 0 min 212 W/m 14,6 km/h (3 Bft) 95,74 %
13.06.2016 09:40 15,8 C 16,7 C 16,1 C 98 % 15 lf 1001,3 hPa 0,0 l/m 0 min 0 min 193 W/m 14,6 km/h (3 Bft) 91,30 %
13.06.2016 09:42 15,9 C 16,7 C 16,1 C 98 % 15 lf 1001,3 hPa 0,0 l/m 0 min 0 min 171 W/m 10,5 km/h (2 Bft) 97,87 %
13.06.2016 09:44 15,9 C 16,7 C 16,1 C 98 % 15 lf 1001,3 hPa 0,0 l/m 0 min 0 min 185 W/m 12,6 km/h (3 Bft) 97,87 %
13.06.2016 09:46 15,9 C 16,7 C 16,1 C 98 % 14 lf 1001,3 hPa 0,0 l/m 0 min 0 min 188 W/m 14,6 km/h (3 Bft) 97,87 %
13.06.2016 09:48 15,9 C 16,7 C 16,7 C 98 % 13 lf 1001,3 hPa 0,0 l/m 0 min 0 min 282 W/m 18,8 km/h (3 Bft) 97,87 %
13.06.2016 09:50 16,0 C 17,2 C 16,7 C 98 % 12 lf 1001,3 hPa 0,0 l/m 2 min 0 min 323 W/m 14,6 km/h (3 Bft) 93,62 %
13.06.2016 09:52 16,1 C 17,8 C 17,2 C 98 % 10 lf 1001,3 hPa 0,0 l/m 2 min 0 min 354 W/m 12,6 km/h (3 Bft) 97,83 %
13.06.2016 09:54 16,1 C 17,8 C 17,2 C 98 % 7 lf 1001,3 hPa 0,0 l/m 2 min 0 min 356 W/m 14,6 km/h (3 Bft) 97,87 %
13.06.2016 09:56 16,2 C 17,8 C 17,2 C 98 % 4 lf 1001,2 hPa 0,0 l/m 2 min 0 min 315 W/m 18,8 km/h (3 Bft) 95,74 %
13.06.2016 09:58 16,2 C 17,2 C 16,7 C 98 % 3 lf 1001,2 hPa 0,0 l/m 0 min 0 min 260 W/m 14,6 km/h (3 Bft) 95,74 %
13.06.2016 10:00 16,3 C 17,2 C 16,7 C 98 % 6 lf 1001,2 hPa 0,0 l/m 0 min 2 min 199 W/m 16,7 km/h (3 Bft) 97,87 %
13.06.2016 10:02 16,3 C 17,2 C 16,7 C 98 % 10 lf 1001,2 hPa 0,0 l/m 0 min 2 min 261 W/m 20,9 km/h (4 Bft) 97,87 %
13.06.2016 10:04 16,3 C 16,7 C 16,7 C 98 % 15 lf 1001,2 hPa 0,0 l/m 2 min 2 min 357 W/m 25,1 km/h (4 Bft) 97,83 %
13.06.2016 10:06 16,4 C 17,2 C 16,7 C 98 % 15 lf 1001,2 hPa 0,0 l/m 2 min 2 min 440 W/m 18,8 km/h (3 Bft) 95,74 %
13.06.2016 10:08 16,4 C 16,7 C 17,2 C 98 % 15 lf 1001,2 hPa 0,0 l/m 2 min 2 min 380 W/m 20,9 km/h (4 Bft) 100,00 %
13.06.2016 10:10 16,4 C 16,7 C 16,7 C 98 % 15 lf 1001,2 hPa 0,2 l/m 0 min 2 min 319 W/m 16,7 km/h (3 Bft) 100,00 %
13.06.2016 10:12 16,5 C 16,7 C 16,7 C 98 % 15 lf 1001,2 hPa 0,0 l/m 0 min 2 min 275 W/m 16,7 km/h (3 Bft) 97,87 %
13.06.2016 10:14 16,5 C 16,7 C 16,7 C 98 % 15 lf 1001,0 hPa 0,0 l/m 0 min 2 min 241 W/m 8,4 km/h (2 Bft) 95,65 %
13.06.2016 10:16 16,5 C 16,7 C 16,1 C 98 % 15 lf 1001,0 hPa 0,0 l/m 0 min 0 min 200 W/m 8,4 km/h (2 Bft) 97,87 %
13.06.2016 10:18 16,5 C 16,7 C 16,7 C 98 % 15 lf 1001,1 hPa 0,0 l/m 0 min 0 min 187 W/m 8,4 km/h (2 Bft) 95,74 %
13.06.2016 10:20 16,6 C 16,7 C 16,1 C 98 % 15 lf 1001,1 hPa 0,0 l/m 0 min 0 min 200 W/m 16,7 km/h (3 Bft) 97,87 %
13.06.2016 10:22 16,5 C 16,7 C 16,7 C 98 % 15 lf 1001,0 hPa 0,0 l/m 0 min 0 min 208 W/m 16,7 km/h (3 Bft) 95,74 %
13.06.2016 10:24 16,5 C 16,7 C 16,7 C 98 % 15 lf 1001,1 hPa 0,0 l/m 0 min 0 min 202 W/m 12,6 km/h (3 Bft) 95,74 %
13.06.2016 10:26 16,5 C 16,7 C 16,7 C 97 % 15 lf 1001,0 hPa 0,0 l/m 0 min 2 min 192 W/m 14,6 km/h (3 Bft) 93,48 %
13.06.2016 10:28 16,5 C 16,7 C 16,1 C 97 % 15 lf 1001,1 hPa 0,0 l/m 0 min 0 min 198 W/m 18,8 km/h (3 Bft) 95,74 %
13.06.2016 10:30 16,5 C 16,7 C 16,1 C 97 % 15 lf 1001,2 hPa 0,0 l/m 0 min 0 min 180 W/m 14,6 km/h (3 Bft) 91,49 %
13.06.2016 10:32 16,5 C 16,7 C 16,1 C 97 % 15 lf 1001,1 hPa 0,0 l/m 0 min 0 min 203 W/m 18,8 km/h (3 Bft) 91,49 %
13.06.2016 10:34 16,5 C 16,7 C 16,1 C 97 % 14 lf 1001,2 hPa 0,0 l/m 0 min 0 min 216 W/m 16,7 km/h (3 Bft) 87,23 %
13.06.2016 10:36 16,5 C 16,7 C 16,1 C 97 % 14 lf 1001,0 hPa 0,0 l/m 0 min 0 min 198 W/m 14,6 km/h (3 Bft) 95,74 %
13.06.2016 10:38 16,5 C 17,2 C 16,1 C 97 % 13 lf 1001,0 hPa 0,0 l/m 0 min 0 min 180 W/m 14,6 km/h (3 Bft) 95,65 %
13.06.2016 10:40 16,6 C 17,2 C 16,1 C 97 % 11 lf 1001,0 hPa 0,0 l/m 0 min 0 min 175 W/m 18,8 km/h (3 Bft) 95,74 %
13.06.2016 10:42 16,6 C 16,7 C 16,1 C 97 % 9 lf 1001,0 hPa 0,0 l/m 0 min 0 min 178 W/m 16,7 km/h (3 Bft) 91,49 %
13.06.2016 10:44 16,6 C 16,7 C 16,1 C 97 % 5 lf 1001,0 hPa 0,0 l/m 0 min 0 min 197 W/m 14,6 km/h (3 Bft) 93,62 %
13.06.2016 10:46 16,5 C 16,7 C 16,1 C 97 % 4 lf 1001,0 hPa 0,0 l/m 0 min 0 min 206 W/m 16,7 km/h (3 Bft) 95,74 %
13.06.2016 10:48 16,5 C 16,7 C 16,1 C 97 % 3 lf 1001,0 hPa 0,0 l/m 0 min 0 min 165 W/m 14,6 km/h (3 Bft) 93,62 %
13.06.2016 10:50 16,4 C 16,7 C 15,6 C 96 % 1 lf 1000,9 hPa 0,0 l/m 0 min 0 min 112 W/m 12,6 km/h (3 Bft) 95,65 %
13.06.2016 10:52 16,4 C 16,7 C 15,6 C 96 % 1 lf 1000,9 hPa 0,0 l/m 0 min 0 min 79 W/m 10,5 km/h (2 Bft) 95,74 %
13.06.2016 10:54 16,4 C 16,1 C 15,6 C 96 % 0 lf 1000,9 hPa 0,0 l/m 0 min 0 min 80 W/m 12,6 km/h (3 Bft) 97,87 %
13.06.2016 10:56 16,4 C 16,1 C 15,6 C 96 % 0 lf 1000,9 hPa 0,0 l/m 0 min 0 min 100 W/m 12,6 km/h (3 Bft) 97,87 %
13.06.2016 10:58 16,4 C 16,1 C 15,6 C 96 % 0 lf 1001,0 hPa 0,0 l/m 0 min 0 min 117 W/m 18,8 km/h (3 Bft) 97,87 %
13.06.2016 11:00 16,4 C 16,1 C 15,6 C 96 % 0 lf 1000,9 hPa 0,0 l/m 0 min 0 min 142 W/m 14,6 km/h (3 Bft) 97,87 %
13.06.2016 11:02 16,3 C 16,1 C 15,6 C 96 % 0 lf 1001,0 hPa 0,0 l/m 0 min 0 min 175 W/m 23,0 km/h (4 Bft) 93,48 %
13.06.2016 11:04 16,3 C 16,1 C 15,6 C 96 % 0 lf 1001,0 hPa 0,0 l/m 0 min 0 min 210 W/m 16,7 km/h (3 Bft) 95,74 %
13.06.2016 11:06 16,3 C 16,1 C 15,6 C 95 % 0 lf 1001,0 hPa 0,0 l/m 0 min 0 min 229 W/m 18,8 km/h (3 Bft) 95,74 %
13.06.2016 11:08 16,2 C 16,1 C 15,6 C 95 % 0 lf 1001,0 hPa 0,0 l/m 0 min 0 min 230 W/m 20,9 km/h (4 Bft) 97,87 %
13.06.2016 11:10 16,1 C 16,1 C 15,6 C 95 % 0 lf 1001,0 hPa 0,0 l/m 0 min 0 min 231 W/m 16,7 km/h (3 Bft) 100,00 %
13.06.2016 11:12 16,1 C 16,7 C 15,6 C 95 % 0 lf 1001,0 hPa 0,0 l/m 0 min 0 min 229 W/m 14,6 km/h (3 Bft) 97,87 %
13.06.2016 11:14 16,1 C 16,7 C 16,1 C 95 % 0 lf 1001,0 hPa 0,0 l/m 0 min 0 min 226 W/m 18,8 km/h (3 Bft) 100,00 %
13.06.2016 11:16 16,1 C 16,7 C 16,1 C 94 % 0 lf 1001,0 hPa 0,0 l/m 0 min 0 min 223 W/m 18,8 km/h (3 Bft) 95,74 %
13.06.2016 11:18 16,2 C 16,7 C 16,1 C 94 % 0 lf 1001,0 hPa 0,0 l/m 0 min 0 min 216 W/m 12,6 km/h (3 Bft) 95,74 %
13.06.2016 11:20 16,2 C 16,7 C 16,1 C 94 % 0 lf 1001,0 hPa 0,0 l/m 0 min 0 min 208 W/m 16,7 km/h (3 Bft) 95,74 %
13.06.2016 11:22 16,2 C 16,7 C 15,6 C 94 % 0 lf 1001,0 hPa 0,0 l/m 0 min 0 min 200 W/m 16,7 km/h (3 Bft) 97,87 %
13.06.2016 11:24 16,2 C 16,7 C 15,6 C 94 % 0 lf 1001,0 hPa 0,0 l/m 0 min 0 min 192 W/m 12,6 km/h (3 Bft) 97,83 %
13.06.2016 11:26 16,2 C 16,7 C 15,6 C 94 % 0 lf 1001,0 hPa 0,0 l/m 0 min 0 min 181 W/m 18,8 km/h (3 Bft) 95,74 %
13.06.2016 11:28 16,2 C 16,7 C 15,6 C 94 % 0 lf 1000,9 hPa 0,0 l/m 0 min 0 min 170 W/m 12,6 km/h (3 Bft) 97,87 %
13.06.2016 11:30 16,2 C 16,1 C 15,6 C 94 % 0 lf 1001,0 hPa 0,0 l/m 0 min 0 min 159 W/m 18,8 km/h (3 Bft) 95,74 %
13.06.2016 11:32 16,2 C 16,1 C 15,6 C 94 % 0 lf 1001,0 hPa 0,0 l/m 0 min 2 min 148 W/m 20,9 km/h (4 Bft) 93,62 %
13.06.2016 11:34 16,2 C 15,6 C 15,0 C 93 % 0 lf 1001,0 hPa 0,0 l/m 0 min 2 min 121 W/m 8,4 km/h (2 Bft) 93,62 %
13.06.2016 11:36 16,1 C 15,6 C 15,0 C 93 % 0 lf 1001,0 hPa 0,0 l/m 0 min 2 min 99 W/m 14,6 km/h (3 Bft) 97,83 %
13.06.2016 11:38 16,1 C 15,6 C 15,0 C 93 % 0 lf 1001,1 hPa 0,0 l/m 0 min 0 min 120 W/m 23,0 km/h (4 Bft) 95,74 %
13.06.2016 11:40 16,0 C 15,6 C 14,4 C 93 % 0 lf 1001,1 hPa 0,0 l/m 0 min 0 min 130 W/m 20,9 km/h (4 Bft) 93,62 %
13.06.2016 11:42 15,9 C 15,6 C 14,4 C 93 % 0 lf 1001,1 hPa 0,0 l/m 0 min 2 min 110 W/m 12,6 km/h (3 Bft) 97,87 %
13.06.2016 11:44 15,8 C 15,6 C 14,4 C 92 % 0 lf 1001,2 hPa 0,0 l/m 0 min 0 min 105 W/m 20,9 km/h (4 Bft) 97,87 %
13.06.2016 11:46 15,8 C 15,6 C 14,4 C 92 % 0 lf 1001,2 hPa 0,0 l/m 0 min 0 min 125 W/m 16,7 km/h (3 Bft) 97,87 %
13.06.2016 11:48 15,7 C 15,6 C 14,4 C 92 % 0 lf 1001,2 hPa 0,0 l/m 0 min 0 min 140 W/m 20,9 km/h (4 Bft) 95,65 %
13.06.2016 11:50 15,7 C 15,6 C 14,4 C 92 % 0 lf 1001,2 hPa 0,0 l/m 0 min 0 min 160 W/m 14,6 km/h (3 Bft) 97,87 %
13.06.2016 11:52 15,7 C 16,1 C 15,0 C 92 % 0 lf 1001,2 hPa 0,0 l/m 0 min 0 min 205 W/m 8,4 km/h (2 Bft) 91,49 %
13.06.2016 11:54 15,7 C 17,2 C 15,6 C 92 % 0 lf 1001,1 hPa 0,0 l/m 0 min 0 min 317 W/m 12,6 km/h (3 Bft) 93,62 %
13.06.2016 11:56 15,7 C 18,9 C 16,7 C 92 % 0 lf 1001,1 hPa 0,0 l/m 2 min 0 min 411 W/m 12,6 km/h (3 Bft) 95,74 %
13.06.2016 11:58 15,8 C 20,0 C 17,8 C 92 % 0 lf 1001,0 hPa 0,0 l/m 2 min 0 min 646 W/m 14,6 km/h (3 Bft) 95,74 %
13.06.2016 12:00 15,9 C 21,1 C 18,3 C 93 % 0 lf 1001,0 hPa 0,0 l/m 2 min 0 min 611 W/m 10,5 km/h (2 Bft) 93,48 %
13.06.2016 12:02 16,1 C 24,4 C 20,0 C 93 % 0 lf 1001,0 hPa 0,0 l/m 2 min 0 min 793 W/m 20,9 km/h (4 Bft) 93,62 %
13.06.2016 12:04 16,2 C 25,6 C 20,6 C 93 % 0 lf 1001,0 hPa 0,0 l/m 2 min 0 min 993 W/m 20,9 km/h (4 Bft) 93,62 %
13.06.2016 12:06 16,4 C 26,1 C 21,1 C 93 % 0 lf 1000,9 hPa 0,0 l/m 2 min 0 min 978 W/m 18,8 km/h (3 Bft) 95,74 %
13.06.2016 12:08 16,5 C 26,7 C 21,1 C 93 % 0 lf 1000,9 hPa 0,0 l/m 2 min 0 min 938 W/m 16,7 km/h (3 Bft) 95,74 %
13.06.2016 12:10 16,7 C 26,7 C 22,2 C 93 % 0 lf 1000,9 hPa 0,0 l/m 2 min 0 min 976 W/m 18,8 km/h (3 Bft) 93,62 %
13.06.2016 12:12 16,9 C 27,2 C 22,2 C 93 % 0 lf 1000,8 hPa 0,0 l/m 2 min 0 min 958 W/m 16,7 km/h (3 Bft) 91,30 %
13.06.2016 12:14 17,1 C 26,1 C 23,3 C 93 % 0 lf 1000,8 hPa 0,0 l/m 2 min 0 min 957 W/m 12,6 km/h (3 Bft) 93,62 %
13.06.2016 12:16 17,3 C 27,8 C 23,9 C 93 % 0 lf 1000,7 hPa 0,0 l/m 2 min 0 min 928 W/m 10,5 km/h (2 Bft) 90,57 %
13.06.2016 12:18 17,5 C 26,1 C 23,3 C 92 % 0 lf 1000,7 hPa 0,0 l/m 2 min 0 min 918 W/m 18,8 km/h (3 Bft) 93,62 %
13.06.2016 12:20 17,6 C 24,4 C 22,2 C 92 % 0 lf 1000,8 hPa 0,0 l/m 0 min 0 min 399 W/m 20,9 km/h (4 Bft) 95,74 %
13.06.2016 12:22 17,7 C 25,0 C 22,8 C 91 % 0 lf 1000,7 hPa 0,0 l/m 2 min 0 min 535 W/m 20,9 km/h (4 Bft) 93,48 %
13.06.2016 12:24 17,9 C 27,2 C 25,0 C 90 % 0 lf 1000,7 hPa 0,0 l/m 2 min 0 min 547 W/m 12,6 km/h (3 Bft) 95,74 %
13.06.2016 12:26 18,0 C 25,0 C 23,9 C 89 % 0 lf 1000,7 hPa 0,0 l/m 2 min 0 min 509 W/m 25,1 km/h (4 Bft) 95,74 %
13.06.2016 12:28 18,1 C 22,8 C 22,2 C 87 % 0 lf 1000,7 hPa 0,0 l/m 2 min 0 min 444 W/m 20,9 km/h (4 Bft) 92,68 %
13.06.2016 12:30 18,1 C 21,7 C 21,1 C 86 % 0 lf 1000,7 hPa 0,0 l/m 0 min 0 min 329 W/m 20,9 km/h (4 Bft) 91,49 %
13.06.2016 12:32 18,2 C 21,1 C 20,6 C 85 % 0 lf 1000,7 hPa 0,0 l/m 0 min 0 min 311 W/m 16,7 km/h (3 Bft) 94,34 %
13.06.2016 12:34 18,2 C 22,2 C 20,0 C 84 % 0 lf 1000,7 hPa 0,0 l/m 0 min 0 min 378 W/m 14,6 km/h (3 Bft) 93,48 %
13.06.2016 12:36 18,2 C 22,2 C 20,6 C 84 % 0 lf 1000,6 hPa 0,0 l/m 0 min 0 min 400 W/m 14,6 km/h (3 Bft) 95,74 %
13.06.2016 12:38 18,2 C 21,7 C 20,6 C 84 % 0 lf 1000,6 hPa 0,0 l/m 0 min 0 min 341 W/m 12,6 km/h (3 Bft) 93,62 %
13.06.2016 12:40 18,3 C 21,7 C 20,6 C 83 % 0 lf 1000,7 hPa 0,0 l/m 0 min 0 min 367 W/m 16,7 km/h (3 Bft) 91,49 %
13.06.2016 12:42 18,3 C 22,8 C 21,1 C 83 % 0 lf 1000,6 hPa 0,0 l/m 0 min 0 min 375 W/m 14,6 km/h (3 Bft) 95,74 %
13.06.2016 12:44 18,3 C 23,3 C 22,2 C 83 % 0 lf 1000,6 hPa 0,0 l/m 0 min 0 min 376 W/m 16,7 km/h (3 Bft) 93,62 %
13.06.2016 12:46 18,4 C 25,0 C 22,8 C 83 % 0 lf 1000,6 hPa 0,0 l/m 0 min 0 min 376 W/m 18,8 km/h (3 Bft) 97,83 %
13.06.2016 12:48 18,6 C 25,6 C 23,9 C 83 % 0 lf 1000,6 hPa 0,0 l/m 0 min 0 min 376 W/m 12,6 km/h (3 Bft) 95,74 %
13.06.2016 12:50 18,7 C 25,0 C 23,3 C 83 % 0 lf 1000,5 hPa 0,0 l/m 2 min 0 min 477 W/m 10,5 km/h (2 Bft) 95,74 %
13.06.2016 12:52 18,7 C 24,4 C 22,8 C 82 % 0 lf 1000,5 hPa 0,0 l/m 2 min 0 min 434 W/m 10,5 km/h (2 Bft) 97,87 %
13.06.2016 12:54 18,8 C 26,1 C 23,9 C 82 % 0 lf 1000,5 hPa 0,0 l/m 2 min 0 min 459 W/m 16,7 km/h (3 Bft) 95,74 %
13.06.2016 12:56 18,9 C 26,7 C 24,4 C 83 % 0 lf 1000,5 hPa 0,0 l/m 2 min 0 min 462 W/m 8,4 km/h (2 Bft) 97,87 %
13.06.2016 12:58 19,0 C 26,1 C 24,4 C 83 % 0 lf 1000,4 hPa 0,0 l/m 2 min 0 min 520 W/m 10,5 km/h (2 Bft) 95,65 %
13.06.2016 13:00 19,1 C 25,6 C 23,3 C 81 % 0 lf 1000,4 hPa 0,0 l/m 2 min 0 min 647 W/m 18,8 km/h (3 Bft) 97,87 %
13.06.2016 13:02 19,1 C 25,0 C 22,8 C 80 % 0 lf 1000,4 hPa 0,0 l/m 2 min 0 min 465 W/m 14,6 km/h (3 Bft) 97,87 %
13.06.2016 13:04 19,1 C 26,1 C 23,3 C 80 % 0 lf 1000,4 hPa 0,0 l/m 0 min 0 min 388 W/m 10,5 km/h (2 Bft) 97,87 %
13.06.2016 13:06 19,2 C 27,2 C 25,0 C 80 % 0 lf 1000,4 hPa 0,0 l/m 2 min 0 min 1121 W/m 14,6 km/h (3 Bft) 100,00 %
13.06.2016 13:08 19,3 C 26,1 C 24,4 C 81 % 0 lf 1000,4 hPa 0,0 l/m 2 min 0 min 1229 W/m 14,6 km/h (3 Bft) 100,00 %
13.06.2016 13:10 19,4 C 26,7 C 25,6 C 81 % 0 lf 1000,4 hPa 0,0 l/m 2 min 0 min 1211 W/m 18,8 km/h (3 Bft) 97,87 %
13.06.2016 13:12 19,6 C 27,2 C 25,0 C 80 % 0 lf 1000,3 hPa 0,0 l/m 2 min 0 min 1170 W/m 18,8 km/h (3 Bft) 95,74 %
13.06.2016 13:14 19,8 C 29,4 C 24,4 C 82 % 0 lf 1000,3 hPa 0,0 l/m 2 min 0 min 1056 W/m 18,8 km/h (3 Bft) 95,74 %
13.06.2016 13:16 20,0 C 30,0 C 24,4 C 83 % 0 lf 1000,3 hPa 0,0 l/m 2 min 0 min 994 W/m 12,6 km/h (3 Bft) 95,74 %
13.06.2016 13:18 20,2 C 31,1 C 22,8 C 81 % 0 lf 1000,2 hPa 0,0 l/m 2 min 0 min 976 W/m 18,8 km/h (3 Bft) 95,74 %
13.06.2016 13:20 20,2 C 30,0 C 22,8 C 80 % 0 lf 1000,2 hPa 0,0 l/m 2 min 0 min 988 W/m 16,7 km/h (3 Bft) 95,65 %
13.06.2016 13:22 20,3 C 30,0 C 22,2 C 79 % 0 lf 1000,1 hPa 0,0 l/m 2 min 0 min 1004 W/m 14,6 km/h (3 Bft) 95,74 %
13.06.2016 13:24 20,4 C 30,0 C 22,2 C 79 % 0 lf 1000,1 hPa 0,0 l/m 2 min 0 min 1061 W/m 18,8 km/h (3 Bft) 95,74 %
13.06.2016 13:26 20,5 C 29,4 C 22,8 C 78 % 0 lf 1000,0 hPa 0,0 l/m 2 min 0 min 1119 W/m 16,7 km/h (3 Bft) 95,74 %
13.06.2016 13:28 20,6 C 26,1 C 23,3 C 77 % 0 lf 999,9 hPa 0,0 l/m 2 min 0 min 884 W/m 12,6 km/h (3 Bft) 93,62 %
13.06.2016 13:30 20,6 C 25,0 C 23,3 C 77 % 0 lf 1000,0 hPa 0,0 l/m 0 min 0 min 413 W/m 10,5 km/h (2 Bft) 93,62 %
13.06.2016 13:32 20,6 C 23,3 C 22,8 C 76 % 0 lf 1000,0 hPa 0,0 l/m 0 min 0 min 399 W/m 10,5 km/h (2 Bft) 95,12 %
13.06.2016 13:34 20,6 C 23,9 C 22,8 C 77 % 0 lf 999,9 hPa 0,0 l/m 2 min 0 min 439 W/m 10,5 km/h (2 Bft) 97,83 %
13.06.2016 13:36 20,7 C 25,6 C 23,3 C 77 % 0 lf 999,9 hPa 0,0 l/m 0 min 0 min 421 W/m 14,6 km/h (3 Bft) 95,74 %
13.06.2016 13:38 20,7 C 27,2 C 23,3 C 77 % 0 lf 999,8 hPa 0,0 l/m 2 min 0 min 932 W/m 14,6 km/h (3 Bft) 97,87 %
13.06.2016 13:40 20,8 C 26,7 C 23,3 C 78 % 0 lf 999,8 hPa 0,0 l/m 2 min 0 min 1188 W/m 18,8 km/h (3 Bft) 93,62 %
13.06.2016 13:42 20,8 C 27,2 C 23,3 C 77 % 0 lf 999,7 hPa 0,0 l/m 2 min 0 min 1177 W/m 29,3 km/h (5 Bft) 95,74 %
13.06.2016 13:44 20,9 C 26,7 C 23,3 C 76 % 0 lf 999,7 hPa 0,0 l/m 2 min 0 min 1100 W/m 16,7 km/h (3 Bft) 93,62 %
13.06.2016 13:46 20,9 C 26,7 C 22,8 C 76 % 0 lf 999,7 hPa 0,0 l/m 2 min 0 min 1109 W/m 27,2 km/h (4 Bft) 98,08 %
13.06.2016 13:48 21,0 C 27,8 C 23,3 C 77 % 0 lf 999,7 hPa 0,0 l/m 2 min 0 min 1100 W/m 16,7 km/h (3 Bft) 97,87 %
13.06.2016 13:50 21,1 C 28,3 C 23,3 C 76 % 0 lf 999,8 hPa 0,0 l/m 2 min 0 min 1058 W/m 23,0 km/h (4 Bft) 97,87 %
13.06.2016 13:52 21,1 C 30,0 C 23,9 C 76 % 0 lf 999,7 hPa 0,0 l/m 2 min 0 min 953 W/m 16,7 km/h (3 Bft) 97,87 %
13.06.2016 13:54 21,2 C 27,8 C 23,9 C 75 % 0 lf 999,7 hPa 0,0 l/m 2 min 0 min 953 W/m 20,9 km/h (4 Bft) 97,87 %
13.06.2016 13:56 21,3 C 27,8 C 23,9 C 75 % 0 lf 999,8 hPa 0,0 l/m 2 min 0 min 953 W/m 20,9 km/h (4 Bft) 100,00 %
13.06.2016 13:58 21,3 C 26,7 C 23,9 C 75 % 0 lf 999,7 hPa 0,0 l/m 2 min 0 min 953 W/m 14,6 km/h (3 Bft) 97,87 %
13.06.2016 14:00 21,3 C 25,0 C 23,3 C 74 % 0 lf 999,7 hPa 0,0 l/m 0 min 0 min 316 W/m 14,6 km/h (3 Bft) 100,00 %
13.06.2016 14:02 21,3 C 24,4 C 22,8 C 74 % 0 lf 999,6 hPa 0,0 l/m 0 min 0 min 283 W/m 14,6 km/h (3 Bft) 100,00 %
13.06.2016 14:04 21,2 C 23,3 C 22,2 C 74 % 0 lf 999,7 hPa 0,0 l/m 0 min 0 min 328 W/m 16,7 km/h (3 Bft) 97,56 %
13.06.2016 14:06 21,2 C 26,1 C 22,8 C 74 % 0 lf 999,6 hPa 0,0 l/m 2 min 0 min 515 W/m 16,7 km/h (3 Bft) 97,87 %
13.06.2016 14:08 21,3 C 27,2 C 24,4 C 77 % 0 lf 999,7 hPa 0,0 l/m 2 min 0 min 1204 W/m 20,9 km/h (4 Bft) 100,00 %
13.06.2016 14:10 21,4 C 26,7 C 25,0 C 76 % 0 lf 999,6 hPa 0,0 l/m 2 min 0 min 1206 W/m 14,6 km/h (3 Bft) 97,83 %
13.06.2016 14:12 21,4 C 25,6 C 24,4 C 75 % 0 lf 999,6 hPa 0,0 l/m 2 min 0 min 1056 W/m 20,9 km/h (4 Bft) 97,87 %
13.06.2016 14:14 21,4 C 25,6 C 24,4 C 74 % 0 lf 999,5 hPa 0,0 l/m 0 min 0 min 353 W/m 25,1 km/h (4 Bft) 97,87 %
13.06.2016 14:16 21,4 C 27,2 C 26,1 C 76 % 0 lf 999,5 hPa 0,0 l/m 2 min 0 min 811 W/m 20,9 km/h (4 Bft) 100,00 %
13.06.2016 14:18 21,5 C 27,2 C 27,8 C 75 % 0 lf 999,5 hPa 0,0 l/m 2 min 0 min 967 W/m 23,0 km/h (4 Bft) 97,87 %
13.06.2016 14:20 21,6 C 28,3 C 28,9 C 76 % 0 lf 999,5 hPa 0,0 l/m 2 min 0 min 1027 W/m 16,7 km/h (3 Bft) 97,83 %
13.06.2016 14:22 21,6 C 27,2 C 28,9 C 74 % 0 lf 999,4 hPa 0,0 l/m 2 min 0 min 948 W/m 16,7 km/h (3 Bft) 95,74 %
13.06.2016 14:24 21,7 C 26,7 C 27,8 C 75 % 0 lf 999,4 hPa 0,0 l/m 2 min 0 min 635 W/m 18,8 km/h (3 Bft) 95,74 %
13.06.2016 14:26 21,7 C 25,6 C 26,1 C 73 % 0 lf 999,4 hPa 0,0 l/m 2 min 0 min 499 W/m 20,9 km/h (4 Bft) 95,74 %
13.06.2016 14:28 21,7 C 25,0 C 25,0 C 72 % 0 lf 999,4 hPa 0,0 l/m 0 min 0 min 407 W/m 18,8 km/h (3 Bft) 100,00 %
13.06.2016 14:30 21,6 C 24,4 C 23,9 C 72 % 0 lf 999,4 hPa 0,0 l/m 0 min 0 min 301 W/m 16,7 km/h (3 Bft) 93,48 %
13.06.2016 14:32 21,6 C 23,9 C 23,3 C 73 % 0 lf 999,4 hPa 0,0 l/m 0 min 0 min 321 W/m 18,8 km/h (3 Bft) 95,00 %
13.06.2016 14:34 21,5 C 23,3 C 22,8 C 73 % 0 lf 999,4 hPa 0,0 l/m 0 min 0 min 351 W/m 25,1 km/h (4 Bft) 95,65 %
13.06.2016 14:36 21,4 C 23,3 C 23,3 C 73 % 0 lf 999,3 hPa 0,0 l/m 2 min 0 min 419 W/m 18,8 km/h (3 Bft) 93,62 %
13.06.2016 14:38 21,4 C 23,9 C 23,9 C 72 % 0 lf 999,3 hPa 0,0 l/m 2 min 0 min 520 W/m 16,7 km/h (3 Bft) 95,74 %
13.06.2016 14:40 21,3 C 23,9 C 23,9 C 71 % 0 lf 999,3 hPa 0,0 l/m 2 min 0 min 494 W/m 12,6 km/h (3 Bft) 95,74 %
13.06.2016 14:42 21,3 C 23,9 C 23,9 C 72 % 0 lf 999,3 hPa 0,0 l/m 2 min 0 min 498 W/m 20,9 km/h (4 Bft) 93,62 %
13.06.2016 14:44 21,3 C 23,9 C 23,9 C 72 % 0 lf 999,3 hPa 0,0 l/m 2 min 0 min 472 W/m 20,9 km/h (4 Bft) 93,48 %
13.06.2016 14:46 21,3 C 23,9 C 23,3 C 72 % 0 lf 999,3 hPa 0,0 l/m 0 min 0 min 350 W/m 18,8 km/h (3 Bft) 95,74 %
13.06.2016 14:48 21,3 C 23,3 C 23,3 C 71 % 0 lf 999,3 hPa 0,0 l/m 0 min 0 min 285 W/m 14,6 km/h (3 Bft) 91,49 %
13.06.2016 14:50 21,3 C 22,8 C 22,8 C 72 % 0 lf 999,3 hPa 0,0 l/m 0 min 0 min 228 W/m 16,7 km/h (3 Bft) 95,74 %
13.06.2016 14:52 21,3 C 22,8 C 21,7 C 73 % 0 lf 999,3 hPa 0,0 l/m 0 min 0 min 169 W/m 18,8 km/h (3 Bft) 93,62 %
13.06.2016 14:54 21,2 C 22,2 C 21,1 C 73 % 0 lf 999,3 hPa 0,0 l/m 0 min 0 min 149 W/m 23,0 km/h (4 Bft) 93,62 %
13.06.2016 14:56 21,2 C 22,2 C 21,1 C 74 % 2 lf 999,3 hPa 0,0 l/m 0 min 0 min 163 W/m 25,1 km/h (4 Bft) 95,65 %
13.06.2016 14:58 21,1 C 22,8 C 21,7 C 74 % 1 lf 999,3 hPa 0,0 l/m 0 min 2 min 296 W/m 18,8 km/h (3 Bft) 95,74 %
13.06.2016 15:00 21,0 C 22,8 C 22,2 C 74 % 0 lf 999,3 hPa 0,0 l/m 0 min 0 min 400 W/m 20,9 km/h (4 Bft) 95,74 %
13.06.2016 15:02 21,0 C 22,8 C 22,2 C 75 % 0 lf 999,3 hPa 0,0 l/m 0 min 0 min 393 W/m 23,0 km/h (4 Bft) 97,87 %
13.06.2016 15:04 20,9 C 22,8 C 22,2 C 74 % 0 lf 999,4 hPa 0,0 l/m 0 min 0 min 384 W/m 31,4 km/h (5 Bft) 97,87 %
13.06.2016 15:06 20,8 C 22,8 C 21,7 C 74 % 0 lf 999,4 hPa 0,0 l/m 0 min 0 min 328 W/m 20,9 km/h (4 Bft) 93,62 %
13.06.2016 15:08 20,8 C 22,8 C 21,7 C 74 % 0 lf 999,3 hPa 0,0 l/m 0 min 0 min 284 W/m 18,8 km/h (3 Bft) 95,65 %
13.06.2016 15:10 20,7 C 22,2 C 21,1 C 73 % 0 lf 999,3 hPa 0,0 l/m 0 min 0 min 249 W/m 18,8 km/h (3 Bft) 97,87 %
13.06.2016 15:12 20,7 C 22,2 C 21,1 C 73 % 0 lf 999,3 hPa 0,0 l/m 0 min 0 min 227 W/m 18,8 km/h (3 Bft) 95,74 %
13.06.2016 15:14 20,6 C 22,2 C 20,6 C 73 % 0 lf 999,2 hPa 0,0 l/m 0 min 0 min 205 W/m 18,8 km/h (3 Bft) 95,74 %
13.06.2016 15:16 20,5 C 21,7 C 20,6 C 73 % 0 lf 999,3 hPa 0,0 l/m 0 min 0 min 195 W/m 20,9 km/h (4 Bft) 97,87 %
13.06.2016 15:18 20,4 C 21,1 C 20,0 C 73 % 0 lf 999,3 hPa 0,0 l/m 0 min 0 min 191 W/m 16,7 km/h (3 Bft) 93,62 %
13.06.2016 15:20 20,3 C 21,1 C 20,0 C 73 % 0 lf 999,3 hPa 0,0 l/m 0 min 0 min 190 W/m 20,9 km/h (4 Bft) 95,65 %
13.06.2016 15:22 20,3 C 20,6 C 19,4 C 73 % 0 lf 999,3 hPa 0,0 l/m 0 min 0 min 194 W/m 25,1 km/h (4 Bft) 95,74 %
13.06.2016 15:24 20,2 C 21,1 C 20,0 C 74 % 0 lf 999,3 hPa 0,0 l/m 0 min 0 min 204 W/m 23,0 km/h (4 Bft) 95,74 %
13.06.2016 15:26 20,2 C 21,1 C 20,0 C 74 % 0 lf 999,4 hPa 0,0 l/m 0 min 0 min 216 W/m 18,8 km/h (3 Bft) 93,62 %
13.06.2016 15:28 20,1 C 21,1 C 20,0 C 75 % 0 lf 999,4 hPa 0,0 l/m 0 min 0 min 221 W/m 18,8 km/h (3 Bft) 97,87 %
13.06.2016 15:30 20,1 C 21,1 C 20,0 C 76 % 0 lf 999,5 hPa 0,0 l/m 0 min 0 min 183 W/m 8,4 km/h (2 Bft) 97,87 %
13.06.2016 15:32 20,1 C 20,6 C 20,0 C 76 % 0 lf 999,5 hPa 0,0 l/m 0 min 0 min 136 W/m 27,2 km/h (4 Bft) 95,65 %
13.06.2016 15:34 20,0 C 20,6 C 19,4 C 76 % 0 lf 999,6 hPa 0,0 l/m 0 min 0 min 76 W/m 20,9 km/h (4 Bft) 93,62 %
13.06.2016 15:36 20,0 C 20,6 C 18,9 C 77 % 0 lf 999,7 hPa 0,0 l/m 0 min 0 min 56 W/m 12,6 km/h (3 Bft) 97,87 %
13.06.2016 15:38 19,9 C 19,4 C 18,3 C 76 % 15 lf 999,8 hPa 0,0 l/m 0 min 2 min 54 W/m 16,7 km/h (3 Bft) 97,87 %
13.06.2016 15:40 19,8 C 19,4 C 17,2 C 76 % 15 lf 999,9 hPa 0,0 l/m 0 min 2 min 55 W/m 16,7 km/h (3 Bft) 93,62 %
13.06.2016 15:42 19,7 C 18,9 C 16,7 C 76 % 15 lf 999,9 hPa 0,0 l/m 0 min 2 min 65 W/m 14,6 km/h (3 Bft) 93,62 %
13.06.2016 15:44 19,5 C 17,8 C 16,1 C 76 % 15 lf 1000,0 hPa 0,0 l/m 0 min 2 min 62 W/m 27,2 km/h (4 Bft) 97,92 %
13.06.2016 15:46 19,3 C 17,2 C 15,0 C 77 % 15 lf 1000,0 hPa 0,2 l/m 0 min 2 min 56 W/m 25,1 km/h (4 Bft) 93,62 %
13.06.2016 15:48 19,1 C 17,2 C 15,0 C 78 % 15 lf 1000,1 hPa 0,0 l/m 0 min 2 min 62 W/m 25,1 km/h (4 Bft) 95,74 %
13.06.2016 15:50 18,9 C 17,2 C 15,6 C 79 % 15 lf 1000,1 hPa 0,0 l/m 0 min 2 min 71 W/m 16,7 km/h (3 Bft) 95,74 %
13.06.2016 15:52 18,8 C 17,2 C 15,6 C 80 % 15 lf 1000,2 hPa 0,0 l/m 0 min 2 min 77 W/m 20,9 km/h (4 Bft) 93,62 %
13.06.2016 15:54 18,7 C 17,2 C 15,6 C 80 % 15 lf 1000,2 hPa 0,0 l/m 0 min 2 min 84 W/m 18,8 km/h (3 Bft) 89,13 %
13.06.2016 15:56 18,6 C 16,7 C 15,0 C 81 % 15 lf 1000,1 hPa 0,0 l/m 0 min 2 min 89 W/m 14,6 km/h (3 Bft) 95,74 %
13.06.2016 15:58 18,5 C 16,7 C 15,0 C 81 % 15 lf 1000,2 hPa 0,0 l/m 0 min 2 min 97 W/m 12,6 km/h (3 Bft) 93,62 %
13.06.2016 16:00 18,4 C 16,1 C 15,6 C 82 % 15 lf 1000,1 hPa 0,0 l/m 0 min 2 min 100 W/m 8,4 km/h (2 Bft) 93,62 %
13.06.2016 16:02 18,3 C 16,1 C 15,6 C 82 % 15 lf 1000,2 hPa 0,2 l/m 0 min 2 min 86 W/m 18,8 km/h (3 Bft) 93,62 %
13.06.2016 16:04 18,2 C 16,1 C 15,0 C 83 % 15 lf 1000,2 hPa 0,0 l/m 0 min 2 min 70 W/m 14,6 km/h (3 Bft) 93,62 %
13.06.2016 16:06 18,1 C 15,6 C 15,0 C 83 % 15 lf 1000,2 hPa 0,0 l/m 0 min 2 min 63 W/m 16,7 km/h (3 Bft) 95,65 %
13.06.2016 16:08 17,9 C 15,6 C 15,0 C 83 % 15 lf 1000,3 hPa 0,0 l/m 0 min 2 min 67 W/m 23,0 km/h (4 Bft) 95,74 %
13.06.2016 16:10 17,7 C 15,0 C 14,4 C 84 % 15 lf 1000,2 hPa 0,2 l/m 0 min 2 min 74 W/m 18,8 km/h (3 Bft) 95,74 %
13.06.2016 16:12 17,6 C 15,0 C 14,4 C 84 % 15 lf 1000,2 hPa 0,0 l/m 0 min 2 min 86 W/m 20,9 km/h (4 Bft) 93,62 %
13.06.2016 16:14 17,4 C 15,0 C 14,4 C 84 % 15 lf 1000,1 hPa 0,0 l/m 0 min 2 min 94 W/m 14,6 km/h (3 Bft) 91,49 %
13.06.2016 16:16 17,2 C 15,0 C 14,4 C 84 % 15 lf 1000,0 hPa 0,0 l/m 0 min 2 min 100 W/m 10,5 km/h (2 Bft) 93,62 %
13.06.2016 16:18 17,2 C 15,0 C 15,0 C 85 % 15 lf 1000,0 hPa 0,0 l/m 0 min 2 min 104 W/m 8,4 km/h (2 Bft) 95,65 %
13.06.2016 16:20 17,1 C 15,6 C 15,0 C 85 % 15 lf 1000,0 hPa 0,0 l/m 0 min 0 min 105 W/m 10,5 km/h (2 Bft) 93,62 %
13.06.2016 16:22 17,0 C 15,6 C 15,0 C 86 % 15 lf 999,9 hPa 0,0 l/m 0 min 0 min 105 W/m 8,4 km/h (2 Bft) 97,87 %
13.06.2016 16:24 16,9 C 15,6 C 15,0 C 86 % 15 lf 999,9 hPa 0,0 l/m 0 min 2 min 110 W/m 4,2 km/h (1 Bft) 97,87 %
13.06.2016 16:26 16,9 C 15,6 C 15,0 C 86 % 15 lf 999,9 hPa 0,0 l/m 0 min 2 min 122 W/m 10,5 km/h (2 Bft) 95,74 %
13.06.2016 16:28 16,8 C 15,6 C 15,0 C 86 % 15 lf 999,9 hPa 0,0 l/m 0 min 2 min 141 W/m 12,6 km/h (3 Bft) 95,74 %
13.06.2016 16:30 16,7 C 15,6 C 15,0 C 87 % 15 lf 999,9 hPa 0,0 l/m 0 min 2 min 169 W/m 16,7 km/h (3 Bft) 93,48 %
13.06.2016 16:32 16,6 C 16,1 C 15,0 C 86 % 15 lf 999,9 hPa 0,0 l/m 0 min 2 min 207 W/m 16,7 km/h (3 Bft) 93,18 %
13.06.2016 16:34 16,6 C 16,7 C 15,6 C 86 % 15 lf 999,8 hPa 0,0 l/m 0 min 2 min 242 W/m 12,6 km/h (3 Bft) 91,49 %
13.06.2016 16:36 16,6 C 16,7 C 16,1 C 87 % 15 lf 999,9 hPa 0,0 l/m 0 min 2 min 273 W/m 8,4 km/h (2 Bft) 95,74 %
13.06.2016 16:38 16,6 C 16,7 C 16,1 C 87 % 15 lf 1000,0 hPa 0,0 l/m 0 min 2 min 275 W/m 6,3 km/h (2 Bft) 97,87 %
13.06.2016 16:40 16,6 C 17,2 C 16,1 C 88 % 15 lf 1000,0 hPa 0,0 l/m 0 min 0 min 261 W/m 6,3 km/h (2 Bft) 95,74 %
13.06.2016 16:42 16,5 C 17,2 C 16,1 C 88 % 15 lf 999,9 hPa 0,0 l/m 0 min 0 min 242 W/m 6,3 km/h (2 Bft) 97,83 %
13.06.2016 16:44 16,6 C 17,8 C 16,1 C 88 % 15 lf 1000,0 hPa 0,0 l/m 0 min 0 min 228 W/m 6,3 km/h (2 Bft) 95,74 %
13.06.2016 16:46 16,6 C 17,8 C 16,1 C 89 % 15 lf 1000,0 hPa 0,0 l/m 0 min 0 min 214 W/m 6,3 km/h (2 Bft) 89,36 %
13.06.2016 16:48 16,6 C 17,8 C 16,1 C 89 % 15 lf 1000,1 hPa 0,0 l/m 0 min 0 min 211 W/m 6,3 km/h (2 Bft) 95,74 %
13.06.2016 16:50 16,6 C 17,8 C 16,1 C 89 % 15 lf 1000,1 hPa 0,0 l/m 0 min 0 min 210 W/m 8,4 km/h (2 Bft) 97,87 %
13.06.2016 16:52 16,6 C 18,3 C 16,1 C 89 % 15 lf 1000,1 hPa 0,0 l/m 0 min 0 min 208 W/m 6,3 km/h (2 Bft) 93,62 %
13.06.2016 16:54 16,6 C 17,8 C 16,1 C 89 % 14 lf 1000,1 hPa 0,0 l/m 0 min 0 min 208 W/m 8,4 km/h (2 Bft) 97,83 %
13.06.2016 16:56 16,6 C 17,8 C 16,1 C 89 % 13 lf 1000,1 hPa 0,0 l/m 0 min 0 min 206 W/m 6,3 km/h (2 Bft) 97,87 %
13.06.2016 16:58 16,6 C 17,8 C 16,1 C 89 % 12 lf 1000,2 hPa 0,0 l/m 0 min 0 min 201 W/m 10,5 km/h (2 Bft) 97,87 %
13.06.2016 17:00 16,6 C 18,3 C 16,1 C 89 % 10 lf 1000,1 hPa 0,0 l/m 0 min 0 min 201 W/m 8,4 km/h (2 Bft) 100,00 %
13.06.2016 17:02 16,7 C 18,3 C 16,7 C 89 % 8 lf 1000,1 hPa 0,0 l/m 0 min 0 min 206 W/m 6,3 km/h (2 Bft) 97,83 %
13.06.2016 17:04 16,7 C 18,3 C 16,7 C 89 % 5 lf 1000,0 hPa 0,0 l/m 0 min 0 min 216 W/m 8,4 km/h (2 Bft) 100,00 %
13.06.2016 17:06 16,7 C 18,9 C 16,7 C 89 % 4 lf 1000,0 hPa 0,0 l/m 0 min 0 min 236 W/m 8,4 km/h (2 Bft) 100,00 %
13.06.2016 17:08 16,8 C 18,9 C 16,7 C 89 % 3 lf 1000,0 hPa 0,0 l/m 0 min 0 min 258 W/m 12,6 km/h (3 Bft) 100,00 %
13.06.2016 17:10 16,8 C 18,9 C 17,2 C 89 % 1 lf 1000,1 hPa 0,0 l/m 0 min 0 min 286 W/m 10,5 km/h (2 Bft) 93,62 %
13.06.2016 17:12 16,8 C 18,9 C 17,2 C 90 % 0 lf 1000,0 hPa 0,0 l/m 2 min 0 min 347 W/m 10,5 km/h (2 Bft) 100,00 %
13.06.2016 17:14 16,9 C 20,0 C 17,8 C 90 % 0 lf 1000,0 hPa 0,0 l/m 2 min 0 min 419 W/m 10,5 km/h (2 Bft) 95,74 %
13.06.2016 17:16 16,9 C 20,0 C 17,8 C 90 % 0 lf 1000,0 hPa 0,0 l/m 2 min 0 min 422 W/m 14,6 km/h (3 Bft) 100,00 %
13.06.2016 17:18 17,0 C 20,6 C 18,3 C 90 % 0 lf 999,9 hPa 0,0 l/m 2 min 0 min 454 W/m 14,6 km/h (3 Bft) 100,00 %
13.06.2016 17:20 17,1 C 20,0 C 17,8 C 90 % 0 lf 999,9 hPa 0,0 l/m 2 min 0 min 329 W/m 16,7 km/h (3 Bft) 93,62 %
13.06.2016 17:22 17,1 C 18,9 C 17,2 C 90 % 0 lf 999,9 hPa 0,0 l/m 0 min 0 min 261 W/m 14,6 km/h (3 Bft) 100,00 %
13.06.2016 17:24 17,2 C 18,9 C 16,7 C 90 % 0 lf 999,9 hPa 0,0 l/m 0 min 0 min 201 W/m 14,6 km/h (3 Bft) 100,00 %
13.06.2016 17:26 17,2 C 18,9 C 16,7 C 90 % 0 lf 999,9 hPa 0,0 l/m 0 min 0 min 141 W/m 14,6 km/h (3 Bft) 97,87 %
13.06.2016 17:28 17,2 C 18,3 C 16,1 C 90 % 0 lf 1000,0 hPa 0,0 l/m 0 min 0 min 63 W/m 14,6 km/h (3 Bft) 97,87 %
13.06.2016 17:30 17,2 C 17,8 C 15,6 C 90 % 0 lf 1000,0 hPa 0,0 l/m 0 min 0 min 32 W/m 20,9 km/h (4 Bft) 97,92 %
13.06.2016 17:32 17,2 C 16,7 C 15,6 C 90 % 4 lf 1000,3 hPa 0,0 l/m 0 min 2 min 29 W/m 25,1 km/h (4 Bft) 100,00 %
13.06.2016 17:34 17,1 C 16,1 C 15,0 C 89 % 15 lf 1000,4 hPa 0,0 l/m 0 min 2 min 33 W/m 31,4 km/h (5 Bft) 100,00 %
13.06.2016 17:36 17,0 C 15,6 C 14,4 C 89 % 15 lf 1000,3 hPa 0,0 l/m 0 min 2 min 36 W/m 27,2 km/h (4 Bft) 97,87 %
13.06.2016 17:38 16,9 C 15,0 C 14,4 C 88 % 15 lf 1000,2 hPa 0,0 l/m 0 min 2 min 39 W/m 20,9 km/h (4 Bft) 100,00 %
13.06.2016 17:40 16,8 C 15,0 C 14,4 C 88 % 15 lf 1000,2 hPa 0,0 l/m 0 min 2 min 42 W/m 23,0 km/h (4 Bft) 100,00 %
13.06.2016 17:42 16,7 C 15,0 C 14,4 C 87 % 15 lf 1000,2 hPa 0,2 l/m 0 min 2 min 47 W/m 16,7 km/h (3 Bft) 100,00 %
13.06.2016 17:44 16,7 C 15,0 C 14,4 C 87 % 15 lf 1000,3 hPa 0,0 l/m 0 min 2 min 55 W/m 16,7 km/h (3 Bft) 97,87 %
13.06.2016 17:46 16,6 C 15,0 C 14,4 C 87 % 15 lf 1000,3 hPa 0,0 l/m 0 min 2 min 62 W/m 18,8 km/h (3 Bft) 100,00 %
13.06.2016 17:48 16,6 C 15,0 C 14,4 C 88 % 15 lf 1000,3 hPa 0,0 l/m 0 min 2 min 67 W/m 14,6 km/h (3 Bft) 100,00 %
13.06.2016 17:50 16,5 C 14,4 C 14,4 C 88 % 15 lf 1000,3 hPa 0,2 l/m 0 min 2 min 76 W/m 16,7 km/h (3 Bft) 100,00 %
13.06.2016 17:52 16,4 C 14,4 C 14,4 C 88 % 15 lf 1000,2 hPa 0,0 l/m 0 min 2 min 86 W/m 14,6 km/h (3 Bft) 100,00 %
13.06.2016 17:54 16,4 C 15,0 C 14,4 C 88 % 15 lf 1000,2 hPa 0,2 l/m 0 min 2 min 98 W/m 14,6 km/h (3 Bft) 97,87 %
13.06.2016 17:56 16,4 C 15,0 C 14,4 C 89 % 15 lf 1000,2 hPa 0,0 l/m 0 min 2 min 116 W/m 12,6 km/h (3 Bft) 100,00 %
13.06.2016 17:58 16,3 C 15,0 C 14,4 C 89 % 15 lf 1000,1 hPa 0,0 l/m 0 min 2 min 154 W/m 12,6 km/h (3 Bft) 97,87 %
13.06.2016 18:00 16,3 C 15,6 C 15,0 C 89 % 15 lf 1000,1 hPa 0,0 l/m 0 min 0 min 198 W/m 8,4 km/h (2 Bft) 100,00 %
13.06.2016 18:02 16,3 C 15,6 C 15,0 C 90 % 15 lf 1000,0 hPa 0,0 l/m 0 min 0 min 194 W/m 12,6 km/h (3 Bft) 95,74 %
13.06.2016 18:04 16,3 C 15,6 C 15,6 C 90 % 15 lf 1000,0 hPa 0,0 l/m 0 min 0 min 201 W/m 12,6 km/h (3 Bft) 95,65 %
13.06.2016 18:06 16,3 C 16,1 C 15,6 C 90 % 15 lf 1000,0 hPa 0,0 l/m 0 min 0 min 206 W/m 12,6 km/h (3 Bft) 97,87 %
13.06.2016 18:08 16,3 C 16,1 C 15,6 C 91 % 15 lf 1000,0 hPa 0,0 l/m 0 min 0 min 204 W/m 16,7 km/h (3 Bft) 95,74 %
13.06.2016 18:10 16,3 C 16,1 C 16,1 C 91 % 15 lf 1000,0 hPa 0,0 l/m 0 min 0 min 201 W/m 18,8 km/h (3 Bft) 97,87 %
13.06.2016 18:12 16,3 C 16,1 C 16,1 C 91 % 15 lf 1000,0 hPa 0,0 l/m 0 min 0 min 189 W/m 16,7 km/h (3 Bft) 95,74 %
13.06.2016 18:14 16,3 C 16,1 C 16,1 C 91 % 15 lf 1000,0 hPa 0,0 l/m 0 min 0 min 175 W/m 12,6 km/h (3 Bft) 93,62 %
13.06.2016 18:16 16,3 C 16,1 C 16,1 C 91 % 15 lf 1000,0 hPa 0,0 l/m 0 min 0 min 161 W/m 16,7 km/h (3 Bft) 95,65 %
13.06.2016 18:18 16,3 C 16,1 C 15,6 C 91 % 15 lf 1000,0 hPa 0,0 l/m 0 min 0 min 150 W/m 12,6 km/h (3 Bft) 93,62 %
13.06.2016 18:20 16,3 C 16,1 C 15,6 C 92 % 15 lf 1000,0 hPa 0,0 l/m 0 min 0 min 143 W/m 14,6 km/h (3 Bft) 95,74 %
13.06.2016 18:22 16,3 C 16,7 C 15,6 C 92 % 15 lf 1000,0 hPa 0,0 l/m 0 min 0 min 137 W/m 8,4 km/h (2 Bft) 95,74 %
13.06.2016 18:24 16,4 C 16,1 C 15,6 C 92 % 15 lf 1000,0 hPa 0,0 l/m 0 min 0 min 134 W/m 10,5 km/h (2 Bft) 91,49 %
13.06.2016 18:26 16,4 C 16,1 C 15,6 C 92 % 15 lf 1000,0 hPa 0,0 l/m 0 min 0 min 132 W/m 12,6 km/h (3 Bft) 93,48 %
13.06.2016 18:28 16,4 C 16,1 C 15,6 C 92 % 15 lf 1000,1 hPa 0,0 l/m 0 min 0 min 134 W/m 16,7 km/h (3 Bft) 93,62 %
13.06.2016 18:30 16,4 C 16,1 C 15,6 C 92 % 15 lf 1000,1 hPa 0,0 l/m 0 min 0 min 130 W/m 10,5 km/h (2 Bft) 93,62 %
13.06.2016 18:32 16,4 C 16,1 C 15,6 C 92 % 15 lf 1000,1 hPa 0,0 l/m 0 min 0 min 126 W/m 14,6 km/h (3 Bft) 93,62 %
13.06.2016 18:34 16,4 C 16,1 C 15,6 C 92 % 15 lf 1000,1 hPa 0,0 l/m 0 min 2 min 121 W/m 27,2 km/h (4 Bft) 93,62 %
13.06.2016 18:36 16,4 C 16,1 C 15,6 C 93 % 15 lf 1000,1 hPa 0,0 l/m 0 min 2 min 120 W/m 10,5 km/h (2 Bft) 89,36 %
13.06.2016 18:38 16,4 C 16,1 C 15,6 C 93 % 15 lf 1000,1 hPa 0,0 l/m 0 min 2 min 112 W/m 18,8 km/h (3 Bft) 93,48 %
13.06.2016 18:40 16,4 C 16,1 C 15,6 C 93 % 15 lf 1000,1 hPa 0,0 l/m 0 min 2 min 104 W/m 18,8 km/h (3 Bft) 89,36 %
13.06.2016 18:42 16,4 C 16,1 C 15,6 C 93 % 15 lf 1000,2 hPa 0,0 l/m 0 min 2 min 97 W/m 16,7 km/h (3 Bft) 91,49 %
13.06.2016 18:44 16,4 C 16,1 C 15,0 C 93 % 15 lf 1000,1 hPa 0,0 l/m 0 min 2 min 90 W/m 16,7 km/h (3 Bft) 87,23 %
13.06.2016 18:46 16,4 C 15,6 C 15,0 C 93 % 15 lf 1000,1 hPa 0,0 l/m 0 min 2 min 84 W/m 14,6 km/h (3 Bft) 91,49 %
13.06.2016 18:48 16,4 C 15,6 C 15,0 C 93 % 15 lf 1000,2 hPa 0,0 l/m 0 min 2 min 78 W/m 20,9 km/h (4 Bft) 91,49 %
13.06.2016 18:50 16,3 C 15,6 C 15,0 C 93 % 15 lf 1000,2 hPa 0,0 l/m 0 min 2 min 74 W/m 23,0 km/h (4 Bft) 89,13 %
13.06.2016 18:52 16,3 C 15,6 C 15,0 C 93 % 15 lf 1000,2 hPa 0,0 l/m 0 min 2 min 70 W/m 18,8 km/h (3 Bft) 89,36 %
13.06.2016 18:54 16,3 C 15,6 C 15,0 C 93 % 15 lf 1000,2 hPa 0,0 l/m 0 min 2 min 66 W/m 23,0 km/h (4 Bft) 93,62 %
13.06.2016 18:56 16,3 C 15,6 C 15,0 C 93 % 15 lf 1000,1 hPa 0,0 l/m 0 min 2 min 63 W/m 16,7 km/h (3 Bft) 85,11 %
13.06.2016 18:58 16,3 C 15,6 C 15,0 C 93 % 15 lf 1000,1 hPa 0,0 l/m 0 min 2 min 62 W/m 16,7 km/h (3 Bft) 93,62 %
13.06.2016 19:00 16,2 C 15,6 C 15,0 C 93 % 15 lf 1000,1 hPa 0,0 l/m 0 min 2 min 62 W/m 23,0 km/h (4 Bft) 95,74 %
13.06.2016 19:02 16,2 C 15,6 C 15,0 C 93 % 15 lf 1000,1 hPa 0,0 l/m 0 min 2 min 62 W/m 16,7 km/h (3 Bft) 93,48 %
13.06.2016 19:04 16,2 C 15,6 C 15,0 C 93 % 15 lf 1000,1 hPa 0,2 l/m 0 min 2 min 62 W/m 16,7 km/h (3 Bft) 95,74 %
13.06.2016 19:06 16,2 C 15,6 C 15,0 C 93 % 15 lf 1000,1 hPa 0,0 l/m 0 min 2 min 64 W/m 12,6 km/h (3 Bft) 91,49 %
13.06.2016 19:08 16,2 C 15,6 C 15,0 C 93 % 15 lf 1000,2 hPa 0,0 l/m 0 min 0 min 67 W/m 12,6 km/h (3 Bft) 95,74 %
13.06.2016 19:10 16,2 C 15,6 C 15,0 C 94 % 15 lf 1000,2 hPa 0,0 l/m 0 min 0 min 69 W/m 12,6 km/h (3 Bft) 97,87 %
13.06.2016 19:12 16,2 C 15,6 C 15,0 C 94 % 15 lf 1000,1 hPa 0,0 l/m 0 min 0 min 69 W/m 16,7 km/h (3 Bft) 93,62 %
13.06.2016 19:14 16,2 C 15,6 C 15,0 C 94 % 15 lf 1000,2 hPa 0,0 l/m 0 min 0 min 68 W/m 18,8 km/h (3 Bft) 95,65 %
13.06.2016 19:16 16,2 C 15,6 C 15,0 C 94 % 15 lf 1000,2 hPa 0,0 l/m 0 min 0 min 63 W/m 18,8 km/h (3 Bft) 93,62 %
13.06.2016 19:18 16,2 C 15,6 C 15,0 C 93 % 15 lf 1000,2 hPa 0,0 l/m 0 min 0 min 59 W/m 6,3 km/h (2 Bft) 97,87 %
13.06.2016 19:20 16,2 C 15,6 C 15,0 C 94 % 15 lf 1000,2 hPa 0,0 l/m 0 min 0 min 51 W/m 10,5 km/h (2 Bft) 95,74 %
13.06.2016 19:22 16,2 C 15,6 C 15,0 C 94 % 15 lf 1000,2 hPa 0,0 l/m 0 min 0 min 41 W/m 20,9 km/h (4 Bft) 95,74 %
13.06.2016 19:24 16,2 C 15,6 C 15,0 C 94 % 15 lf 1000,3 hPa 0,0 l/m 0 min 0 min 36 W/m 18,8 km/h (3 Bft) 97,87 %
13.06.2016 19:26 16,2 C 15,6 C 15,0 C 94 % 15 lf 1000,2 hPa 0,0 l/m 0 min 2 min 29 W/m 14,6 km/h (3 Bft) 97,83 %
13.06.2016 19:28 16,2 C 15,6 C 15,0 C 94 % 15 lf 1000,2 hPa 0,0 l/m 0 min 2 min 28 W/m 18,8 km/h (3 Bft) 95,74 %
13.06.2016 19:30 16,2 C 15,6 C 15,0 C 94 % 15 lf 1000,2 hPa 0,0 l/m 0 min 2 min 28 W/m 10,5 km/h (2 Bft) 97,87 %
13.06.2016 19:32 16,2 C 15,6 C 15,0 C 94 % 15 lf 1000,2 hPa 0,0 l/m 0 min 2 min 29 W/m 8,4 km/h (2 Bft) 95,74 %
13.06.2016 19:34 16,1 C 15,6 C 15,0 C 94 % 15 lf 1000,3 hPa 0,0 l/m 0 min 2 min 30 W/m 12,6 km/h (3 Bft) 100,00 %
13.06.2016 19:36 16,1 C 15,6 C 14,4 C 94 % 15 lf 1000,2 hPa 0,0 l/m 0 min 2 min 30 W/m 16,7 km/h (3 Bft) 100,00 %
13.06.2016 19:38 16,1 C 15,6 C 15,0 C 94 % 15 lf 1000,3 hPa 0,0 l/m 0 min 2 min 30 W/m 16,7 km/h (3 Bft) 95,74 %
13.06.2016 19:40 16,1 C 15,6 C 14,4 C 94 % 15 lf 1000,3 hPa 0,0 l/m 0 min 0 min 30 W/m 14,6 km/h (3 Bft) 100,00 %
13.06.2016 19:42 16,1 C 15,6 C 15,0 C 94 % 15 lf 1000,3 hPa 0,0 l/m 0 min 0 min 31 W/m 6,3 km/h (2 Bft) 100,00 %
13.06.2016 19:44 16,1 C 15,6 C 15,0 C 94 % 15 lf 1000,2 hPa 0,0 l/m 0 min 2 min 32 W/m 10,5 km/h (2 Bft) 97,87 %
13.06.2016 19:46 16,1 C 15,6 C 15,0 C 94 % 15 lf 1000,3 hPa 0,0 l/m 0 min 2 min 32 W/m 14,6 km/h (3 Bft) 100,00 %
13.06.2016 19:48 16,0 C 15,6 C 14,4 C 94 % 15 lf 1000,2 hPa 0,0 l/m 0 min 2 min 33 W/m 16,7 km/h (3 Bft) 97,83 %
13.06.2016 19:50 16,0 C 15,6 C 14,4 C 94 % 15 lf 1000,3 hPa 0,0 l/m 0 min 2 min 33 W/m 18,8 km/h (3 Bft) 97,87 %
13.06.2016 19:52 16,0 C 15,0 C 14,4 C 94 % 15 lf 1000,2 hPa 0,0 l/m 0 min 2 min 33 W/m 12,6 km/h (3 Bft) 97,87 %
13.06.2016 19:54 16,0 C 15,0 C 14,4 C 94 % 15 lf 1000,3 hPa 0,0 l/m 0 min 2 min 33 W/m 12,6 km/h (3 Bft) 100,00 %
13.06.2016 19:56 15,9 C 15,6 C 14,4 C 94 % 15 lf 1000,3 hPa 0,0 l/m 0 min 0 min 34 W/m 12,6 km/h (3 Bft) 97,87 %
13.06.2016 19:58 15,9 C 15,6 C 14,4 C 94 % 15 lf 1000,3 hPa 0,0 l/m 0 min 0 min 35 W/m 16,7 km/h (3 Bft) 100,00 %
13.06.2016 20:00 15,9 C 15,6 C 14,4 C 94 % 15 lf 1000,3 hPa 0,0 l/m 0 min 0 min 37 W/m 12,6 km/h (3 Bft) 97,83 %
13.06.2016 20:02 15,9 C 15,6 C 14,4 C 94 % 15 lf 1000,2 hPa 0,0 l/m 0 min 0 min 38 W/m 16,7 km/h (3 Bft) 97,87 %
13.06.2016 20:04 15,9 C 15,6 C 14,4 C 94 % 15 lf 1000,3 hPa 0,0 l/m 0 min 0 min 39 W/m 8,4 km/h (2 Bft) 97,87 %
13.06.2016 20:06 15,9 C 15,6 C 14,4 C 94 % 14 lf 1000,2 hPa 0,0 l/m 0 min 0 min 39 W/m 8,4 km/h (2 Bft) 100,00 %
13.06.2016 20:08 15,9 C 15,6 C 15,0 C 94 % 14 lf 1000,2 hPa 0,0 l/m 0 min 0 min 39 W/m 10,5 km/h (2 Bft) 100,00 %
13.06.2016 20:10 15,9 C 15,6 C 14,4 C 94 % 14 lf 1000,3 hPa 0,0 l/m 0 min 0 min 38 W/m 16,7 km/h (3 Bft) 100,00 %
13.06.2016 20:12 15,9 C 15,6 C 14,4 C 94 % 14 lf 1000,3 hPa 0,0 l/m 0 min 0 min 35 W/m 14,6 km/h (3 Bft) 95,65 %
13.06.2016 20:14 15,9 C 15,6 C 14,4 C 94 % 13 lf 1000,2 hPa 0,0 l/m 0 min 0 min 33 W/m 12,6 km/h (3 Bft) 95,74 %
13.06.2016 20:16 15,9 C 15,6 C 14,4 C 94 % 13 lf 1000,3 hPa 0,0 l/m 0 min 0 min 32 W/m 10,5 km/h (2 Bft) 97,87 %
13.06.2016 20:18 15,9 C 15,6 C 14,4 C 94 % 12 lf 1000,2 hPa 0,0 l/m 0 min 0 min 30 W/m 14,6 km/h (3 Bft) 100,00 %
13.06.2016 20:20 15,9 C 15,6 C 14,4 C 94 % 12 lf 1000,3 hPa 0,0 l/m 0 min 0 min 28 W/m 12,6 km/h (3 Bft) 97,87 %
13.06.2016 20:22 15,8 C 15,6 C 14,4 C 94 % 12 lf 1000,3 hPa 0,0 l/m 0 min 0 min 28 W/m 12,6 km/h (3 Bft) 95,74 %
13.06.2016 20:24 15,8 C 15,6 C 14,4 C 94 % 11 lf 1000,3 hPa 0,0 l/m 0 min 0 min 26 W/m 10,5 km/h (2 Bft) 97,83 %
13.06.2016 20:26 15,8 C 15,0 C 14,4 C 94 % 10 lf 1000,3 hPa 0,0 l/m 0 min 0 min 25 W/m 8,4 km/h (2 Bft) 97,87 %
13.06.2016 20:28 15,8 C 15,6 C 14,4 C 94 % 10 lf 1000,3 hPa 0,0 l/m 0 min 0 min 25 W/m 12,6 km/h (3 Bft) 97,87 %
13.06.2016 20:30 15,8 C 15,6 C 14,4 C 94 % 9 lf 1000,3 hPa 0,0 l/m 0 min 0 min 23 W/m 14,6 km/h (3 Bft) 95,74 %
13.06.2016 20:32 15,8 C 15,0 C 14,4 C 94 % 9 lf 1000,3 hPa 0,0 l/m 0 min 0 min 22 W/m 12,6 km/h (3 Bft) 100,00 %
13.06.2016 20:34 15,8 C 15,0 C 14,4 C 94 % 8 lf 1000,3 hPa 0,0 l/m 0 min 0 min 20 W/m 8,4 km/h (2 Bft) 97,87 %
13.06.2016 20:36 15,8 C 15,0 C 14,4 C 94 % 8 lf 1000,3 hPa 0,0 l/m 0 min 0 min 19 W/m 8,4 km/h (2 Bft) 97,83 %
13.06.2016 20:38 15,8 C 15,6 C 14,4 C 94 % 7 lf 1000,3 hPa 0,0 l/m 0 min 0 min 18 W/m 6,3 km/h (2 Bft) 95,74 %
13.06.2016 20:40 15,8 C 15,0 C 14,4 C 94 % 7 lf 1000,3 hPa 0,0 l/m 0 min 0 min 18 W/m 8,4 km/h (2 Bft) 97,87 %
13.06.2016 20:42 15,8 C 15,0 C 14,4 C 95 % 6 lf 1000,3 hPa 0,0 l/m 0 min 0 min 18 W/m 12,6 km/h (3 Bft) 95,74 %
13.06.2016 20:44 15,8 C 15,0 C 14,4 C 95 % 5 lf 1000,3 hPa 0,0 l/m 0 min 0 min 18 W/m 12,6 km/h (3 Bft) 97,87 %
13.06.2016 20:46 15,8 C 15,0 C 14,4 C 95 % 5 lf 1000,2 hPa 0,0 l/m 0 min 0 min 18 W/m 4,2 km/h (1 Bft) 93,62 %
13.06.2016 20:48 15,8 C 15,0 C 14,4 C 95 % 4 lf 1000,3 hPa 0,0 l/m 0 min 0 min 18 W/m 10,5 km/h (2 Bft) 93,48 %
13.06.2016 20:50 15,8 C 15,0 C 14,4 C 95 % 4 lf 1000,2 hPa 0,0 l/m 0 min 0 min 18 W/m 8,4 km/h (2 Bft) 95,74 %
13.06.2016 20:52 15,8 C 15,0 C 14,4 C 95 % 4 lf 1000,2 hPa 0,0 l/m 0 min 2 min 18 W/m 10,5 km/h (2 Bft) 100,00 %
13.06.2016 20:54 15,8 C 15,0 C 14,4 C 95 % 4 lf 1000,3 hPa 0,0 l/m 0 min 0 min 18 W/m 12,6 km/h (3 Bft) 97,87 %
13.06.2016 20:56 15,8 C 15,0 C 14,4 C 95 % 4 lf 1000,3 hPa 0,0 l/m 0 min 0 min 19 W/m 10,5 km/h (2 Bft) 97,87 %
13.06.2016 20:58 15,8 C 15,0 C 14,4 C 95 % 4 lf 1000,3 hPa 0,0 l/m 0 min 0 min 19 W/m 4,2 km/h (1 Bft) 97,87 %
13.06.2016 21:00 15,8 C 15,0 C 14,4 C 95 % 4 lf 1000,3 hPa 0,0 l/m 0 min 2 min 20 W/m 8,4 km/h (2 Bft) 100,00 %
13.06.2016 21:02 15,8 C 15,0 C 14,4 C 95 % 4 lf 1000,4 hPa 0,0 l/m 0 min 0 min 21 W/m 10,5 km/h (2 Bft) 97,87 %
13.06.2016 21:04 15,8 C 15,0 C 14,4 C 95 % 3 lf 1000,3 hPa 0,0 l/m 0 min 0 min 21 W/m 10,5 km/h (2 Bft) 97,87 %
13.06.2016 21:06 15,8 C 15,0 C 14,4 C 95 % 3 lf 1000,3 hPa 0,0 l/m 0 min 0 min 23 W/m 10,5 km/h (2 Bft) 97,87 %
13.06.2016 21:08 15,8 C 15,0 C 14,4 C 95 % 3 lf 1000,4 hPa 0,0 l/m 0 min 0 min 21 W/m 4,2 km/h (1 Bft) 97,87 %
13.06.2016 21:10 15,8 C 15,0 C 14,4 C 95 % 3 lf 1000,3 hPa 0,0 l/m 0 min 0 min 21 W/m 10,5 km/h (2 Bft) 95,65 %
13.06.2016 21:12 15,8 C 15,0 C 14,4 C 95 % 3 lf 1000,3 hPa 0,0 l/m 0 min 0 min 21 W/m 10,5 km/h (2 Bft) 97,87 %
13.06.2016 21:14 15,8 C 15,0 C 14,4 C 95 % 2 lf 1000,3 hPa 0,0 l/m 0 min 0 min 19 W/m 8,4 km/h (2 Bft) 97,87 %
13.06.2016 21:16 15,7 C 15,0 C 14,4 C 95 % 2 lf 1000,4 hPa 0,0 l/m 0 min 0 min 17 W/m 10,5 km/h (2 Bft) 95,74 %
13.06.2016 21:18 15,7 C 15,0 C 14,4 C 95 % 2 lf 1000,3 hPa 0,0 l/m 0 min 0 min 16 W/m 10,5 km/h (2 Bft) 97,87 %
13.06.2016 21:20 15,7 C 15,0 C 14,4 C 95 % 2 lf 1000,3 hPa 0,0 l/m 0 min 0 min 14 W/m 12,6 km/h (3 Bft) 97,87 %
13.06.2016 21:22 15,7 C 15,0 C 14,4 C 95 % 1 lf 1000,4 hPa 0,0 l/m 0 min 0 min 12 W/m 6,3 km/h (2 Bft) 97,83 %
13.06.2016 21:24 15,7 C 15,0 C 14,4 C 95 % 1 lf 1000,3 hPa 0,0 l/m 0 min 0 min 12 W/m 8,4 km/h (2 Bft) 97,87 %
13.06.2016 21:26 15,7 C 15,0 C 14,4 C 95 % 1 lf 1000,4 hPa 0,0 l/m 0 min 0 min 11 W/m 10,5 km/h (2 Bft) 95,74 %
13.06.2016 21:28 15,7 C 15,0 C 14,4 C 95 % 1 lf 1000,3 hPa 0,0 l/m 0 min 0 min 11 W/m 12,6 km/h (3 Bft) 97,87 %
13.06.2016 21:30 15,7 C 15,0 C 14,4 C 95 % 1 lf 1000,3 hPa 0,0 l/m 0 min 0 min 10 W/m 10,5 km/h (2 Bft) 95,74 %
13.06.2016 21:32 15,7 C 15,0 C 14,4 C 95 % 1 lf 1000,3 hPa 0,0 l/m 0 min 0 min 9 W/m 10,5 km/h (2 Bft) 97,87 %
13.06.2016 21:34 15,7 C 15,0 C 13,9 C 95 % 1 lf 1000,4 hPa 0,0 l/m 0 min 0 min 9 W/m 12,6 km/h (3 Bft) 95,65 %
13.06.2016 21:36 15,6 C 15,0 C 13,9 C 95 % 1 lf 1000,3 hPa 0,0 l/m 0 min 0 min 9 W/m 10,5 km/h (2 Bft) 93,62 %
13.06.2016 21:38 15,6 C 15,0 C 13,9 C 95 % 1 lf 1000,4 hPa 0,0 l/m 0 min 0 min 7 W/m 12,6 km/h (3 Bft) 93,62 %
13.06.2016 21:40 15,6 C 15,0 C 13,9 C 95 % 1 lf 1000,4 hPa 0,0 l/m 0 min 0 min 7 W/m 12,6 km/h (3 Bft) 95,74 %
13.06.2016 21:42 15,6 C 15,0 C 13,9 C 95 % 1 lf 1000,4 hPa 0,0 l/m 0 min 0 min 7 W/m 10,5 km/h (2 Bft) 93,62 %
13.06.2016 21:44 15,6 C 15,0 C 13,9 C 95 % 1 lf 1000,4 hPa 0,0 l/m 0 min 0 min 7 W/m 6,3 km/h (2 Bft) 95,74 %
13.06.2016 21:46 15,6 C 15,0 C 13,9 C 95 % 1 lf 1000,3 hPa 0,0 l/m 0 min 0 min 5 W/m 6,3 km/h (2 Bft) 93,48 %
13.06.2016 21:48 15,5 C 15,0 C 13,9 C 95 % 1 lf 1000,4 hPa 0,0 l/m 0 min 0 min 5 W/m 12,6 km/h (3 Bft) 93,62 %
13.06.2016 21:50 15,5 C 15,0 C 13,9 C 95 % 1 lf 1000,4 hPa 0,0 l/m 0 min 0 min 5 W/m 16,7 km/h (3 Bft) 87,23 %
13.06.2016 21:52 15,5 C 15,0 C 13,9 C 95 % 1 lf 1000,4 hPa 0,0 l/m 0 min 0 min 5 W/m 10,5 km/h (2 Bft) 87,23 %
13.06.2016 21:54 15,4 C 15,0 C 13,9 C 95 % 1 lf 1000,4 hPa 0,0 l/m 0 min 0 min 5 W/m 12,6 km/h (3 Bft) 93,62 %
13.06.2016 21:56 15,4 C 15,0 C 13,9 C 95 % 1 lf 1000,5 hPa 0,0 l/m 0 min 0 min 5 W/m 10,5 km/h (2 Bft) 93,62 %
13.06.2016 21:58 15,4 C 15,0 C 13,9 C 95 % 1 lf 1000,5 hPa 0,0 l/m 0 min 0 min 5 W/m 12,6 km/h (3 Bft) 95,65 %
13.06.2016 22:00 15,4 C 15,0 C 13,9 C 95 % 1 lf 1000,5 hPa 0,0 l/m 0 min 0 min 5 W/m 12,6 km/h (3 Bft) 93,62 %
13.06.2016 22:02 15,4 C 15,0 C 13,9 C 95 % 1 lf 1000,5 hPa 0,0 l/m 0 min 0 min 5 W/m 8,4 km/h (2 Bft) 95,74 %
13.06.2016 22:04 15,4 C 15,0 C 13,9 C 95 % 1 lf 1000,5 hPa 0,0 l/m 0 min 0 min 5 W/m 10,5 km/h (2 Bft) 95,74 %
13.06.2016 22:06 15,4 C 15,0 C 13,9 C 95 % 1 lf 1000,5 hPa 0,0 l/m 0 min 0 min 5 W/m 8,4 km/h (2 Bft) 91,49 %
13.06.2016 22:08 15,4 C 15,0 C 13,9 C 95 % 1 lf 1000,5 hPa 0,0 l/m 0 min 0 min 5 W/m 8,4 km/h (2 Bft) 91,30 %
13.06.2016 22:10 15,4 C 15,0 C 13,9 C 95 % 1 lf 1000,5 hPa 0,0 l/m 0 min 0 min 5 W/m 8,4 km/h (2 Bft) 93,62 %
13.06.2016 22:12 15,4 C 15,0 C 13,9 C 95 % 1 lf 1000,6 hPa 0,0 l/m 0 min 0 min 5 W/m 10,5 km/h (2 Bft) 93,62 %
13.06.2016 22:14 15,3 C 15,0 C 13,9 C 95 % 1 lf 1000,5 hPa 0,0 l/m 0 min 0 min 5 W/m 8,4 km/h (2 Bft) 95,74 %
13.06.2016 22:16 15,3 C 15,0 C 13,9 C 95 % 1 lf 1000,5 hPa 0,0 l/m 0 min 0 min 5 W/m 6,3 km/h (2 Bft) 89,36 %
13.06.2016 22:18 15,3 C 15,0 C 13,9 C 95 % 1 lf 1000,5 hPa 0,0 l/m 0 min 0 min 5 W/m 10,5 km/h (2 Bft) 93,62 %
13.06.2016 22:20 15,3 C 15,0 C 13,9 C 95 % 1 lf 1000,5 hPa 0,0 l/m 0 min 0 min 5 W/m 10,5 km/h (2 Bft) 93,48 %
13.06.2016 22:22 15,3 C 15,0 C 13,9 C 95 % 1 lf 1000,6 hPa 0,0 l/m 0 min 0 min 5 W/m 8,4 km/h (2 Bft) 94,34 %
13.06.2016 22:24 15,3 C 15,0 C 13,9 C 95 % 1 lf 1000,5 hPa 0,0 l/m 0 min 0 min 5 W/m 8,4 km/h (2 Bft) 91,49 %
13.06.2016 22:26 15,3 C 15,0 C 13,9 C 95 % 1 lf 1000,5 hPa 0,0 l/m 0 min 0 min 5 W/m 8,4 km/h (2 Bft) 89,36 %
13.06.2016 22:28 15,3 C 15,0 C 13,9 C 95 % 1 lf 1000,5 hPa 0,0 l/m 0 min 0 min 5 W/m 10,5 km/h (2 Bft) 93,62 %
13.06.2016 22:30 15,3 C 15,0 C 13,9 C 95 % 1 lf 1000,5 hPa 0,0 l/m 0 min 0 min 5 W/m 10,5 km/h (2 Bft) 93,62 %
13.06.2016 22:32 15,3 C 15,0 C 13,9 C 95 % 1 lf 1000,5 hPa 0,0 l/m 0 min 0 min 5 W/m 8,4 km/h (2 Bft) 93,48 %
13.06.2016 22:34 15,3 C 15,0 C 13,9 C 95 % 1 lf 1000,5 hPa 0,0 l/m 0 min 0 min 5 W/m 8,4 km/h (2 Bft) 95,83 %
13.06.2016 22:36 15,3 C 15,0 C 13,9 C 95 % 1 lf 1000,5 hPa 0,0 l/m 0 min 0 min 5 W/m 6,3 km/h (2 Bft) 93,62 %
13.06.2016 22:38 15,3 C 15,0 C 13,9 C 95 % 1 lf 1000,5 hPa 0,0 l/m 0 min 0 min 5 W/m 8,4 km/h (2 Bft) 91,49 %
13.06.2016 22:40 15,3 C 15,0 C 13,9 C 95 % 1 lf 1000,5 hPa 0,0 l/m 0 min 0 min 5 W/m 10,5 km/h (2 Bft) 95,74 %
13.06.2016 22:42 15,3 C 15,0 C 13,9 C 95 % 1 lf 1000,5 hPa 0,0 l/m 0 min 0 min 5 W/m 8,4 km/h (2 Bft) 91,30 %
13.06.2016 22:44 15,2 C 15,0 C 13,9 C 95 % 1 lf 1000,6 hPa 0,0 l/m 0 min 0 min 5 W/m 8,4 km/h (2 Bft) 95,74 %
13.06.2016 22:46 15,2 C 15,0 C 13,9 C 95 % 1 lf 1000,6 hPa 0,0 l/m 0 min 2 min 5 W/m 8,4 km/h (2 Bft) 95,74 %
13.06.2016 22:48 15,2 C 15,0 C 13,9 C 95 % 1 lf 1000,6 hPa 0,0 l/m 0 min 0 min 5 W/m 8,4 km/h (2 Bft) 95,74 %
13.06.2016 22:50 15,2 C 15,0 C 13,9 C 95 % 1 lf 1000,6 hPa 0,0 l/m 0 min 0 min 5 W/m 8,4 km/h (2 Bft) 95,74 %
13.06.2016 22:52 15,2 C 15,0 C 13,9 C 95 % 1 lf 1000,7 hPa 0,0 l/m 0 min 2 min 5 W/m 6,3 km/h (2 Bft) 97,87 %
13.06.2016 22:54 15,2 C 15,0 C 13,9 C 95 % 1 lf 1000,7 hPa 0,0 l/m 0 min 2 min 5 W/m 8,4 km/h (2 Bft) 100,00 %
13.06.2016 22:56 15,2 C 15,0 C 13,9 C 95 % 1 lf 1000,7 hPa 0,0 l/m 0 min 2 min 5 W/m 6,3 km/h (2 Bft) 97,87 %
13.06.2016 22:58 15,2 C 15,0 C 13,9 C 95 % 1 lf 1000,7 hPa 0,0 l/m 0 min 2 min 5 W/m 10,5 km/h (2 Bft) 100,00 %
13.06.2016 23:00 15,2 C 15,0 C 13,9 C 95 % 1 lf 1000,7 hPa 0,0 l/m 0 min 0 min 5 W/m 8,4 km/h (2 Bft) 97,87 %
13.06.2016 23:02 15,2 C 15,0 C 13,9 C 95 % 1 lf 1000,6 hPa 0,0 l/m 0 min 2 min 5 W/m 6,3 km/h (2 Bft) 97,87 %
13.06.2016 23:04 15,2 C 15,0 C 13,9 C 95 % 1 lf 1000,6 hPa 0,0 l/m 0 min 0 min 5 W/m 6,3 km/h (2 Bft) 100,00 %
13.06.2016 23:06 15,2 C 15,0 C 13,9 C 95 % 1 lf 1000,7 hPa 0,0 l/m 0 min 0 min 5 W/m 8,4 km/h (2 Bft) 100,00 %
13.06.2016 23:08 15,2 C 15,0 C 13,9 C 95 % 1 lf 1000,7 hPa 0,0 l/m 0 min 0 min 5 W/m 6,3 km/h (2 Bft) 100,00 %
13.06.2016 23:10 15,2 C 15,0 C 13,9 C 95 % 1 lf 1000,7 hPa 0,0 l/m 0 min 0 min 5 W/m 8,4 km/h (2 Bft) 97,87 %
13.06.2016 23:12 15,2 C 15,0 C 13,9 C 95 % 1 lf 1000,7 hPa 0,0 l/m 0 min 0 min 5 W/m 6,3 km/h (2 Bft) 97,87 %
13.06.2016 23:14 15,2 C 15,0 C 13,9 C 96 % 1 lf 1000,6 hPa 0,0 l/m 0 min 0 min 5 W/m 8,4 km/h (2 Bft) 97,87 %
13.06.2016 23:16 15,2 C 15,0 C 13,9 C 96 % 1 lf 1000,7 hPa 0,0 l/m 0 min 2 min 5 W/m 6,3 km/h (2 Bft) 97,83 %
13.06.2016 23:18 15,2 C 15,0 C 13,9 C 96 % 1 lf 1000,6 hPa 0,0 l/m 0 min 0 min 5 W/m 6,3 km/h (2 Bft) 100,00 %
13.06.2016 23:20 15,2 C 15,0 C 13,9 C 96 % 1 lf 1000,7 hPa 0,0 l/m 0 min 0 min 5 W/m 8,4 km/h (2 Bft) 97,87 %
13.06.2016 23:22 15,2 C 15,0 C 13,9 C 96 % 1 lf 1000,6 hPa 0,0 l/m 0 min 0 min 5 W/m 8,4 km/h (2 Bft) 100,00 %
13.06.2016 23:24 15,2 C 15,0 C 13,9 C 96 % 1 lf 1000,6 hPa 0,0 l/m 0 min 0 min 5 W/m 10,5 km/h (2 Bft) 97,87 %
13.06.2016 23:26 15,2 C 15,0 C 13,9 C 96 % 1 lf 1000,6 hPa 0,0 l/m 0 min 0 min 5 W/m 8,4 km/h (2 Bft) 100,00 %
13.06.2016 23:28 15,2 C 15,0 C 13,9 C 96 % 1 lf 1000,6 hPa 0,0 l/m 0 min 0 min 5 W/m 6,3 km/h (2 Bft) 100,00 %
13.06.2016 23:30 15,2 C 15,0 C 13,9 C 96 % 1 lf 1000,6 hPa 0,0 l/m 0 min 0 min 5 W/m 6,3 km/h (2 Bft) 100,00 %
13.06.2016 23:32 15,2 C 15,0 C 13,9 C 96 % 1 lf 1000,6 hPa 0,0 l/m 0 min 0 min 5 W/m 12,6 km/h (3 Bft) 100,00 %
13.06.2016 23:34 15,2 C 15,0 C 13,9 C 96 % 1 lf 1000,6 hPa 0,0 l/m 0 min 0 min 5 W/m 8,4 km/h (2 Bft) 100,00 %
13.06.2016 23:36 15,2 C 15,0 C 13,9 C 96 % 1 lf 1000,6 hPa 0,0 l/m 0 min 0 min 5 W/m 8,4 km/h (2 Bft) 97,87 %
13.06.2016 23:38 15,2 C 15,0 C 13,9 C 96 % 1 lf 1000,6 hPa 0,0 l/m 0 min 0 min 5 W/m 8,4 km/h (2 Bft) 100,00 %
13.06.2016 23:40 15,2 C 15,0 C 13,9 C 96 % 1 lf 1000,5 hPa 0,0 l/m 0 min 0 min 5 W/m 8,4 km/h (2 Bft) 97,83 %
13.06.2016 23:42 15,2 C 15,0 C 13,9 C 96 % 1 lf 1000,5 hPa 0,0 l/m 0 min 0 min 5 W/m 12,6 km/h (3 Bft) 95,74 %
13.06.2016 23:44 15,1 C 15,0 C 13,9 C 96 % 1 lf 1000,5 hPa 0,0 l/m 0 min 0 min 5 W/m 6,3 km/h (2 Bft) 95,74 %
13.06.2016 23:46 15,2 C 15,0 C 13,9 C 96 % 1 lf 1000,6 hPa 0,0 l/m 0 min 0 min 5 W/m 10,5 km/h (2 Bft) 95,74 %
13.06.2016 23:48 15,1 C 15,0 C 13,9 C 96 % 1 lf 1000,6 hPa 0,0 l/m 0 min 0 min 5 W/m 8,4 km/h (2 Bft) 100,00 %
13.06.2016 23:50 15,1 C 15,0 C 13,9 C 96 % 1 lf 1000,6 hPa 0,0 l/m 0 min 0 min 5 W/m 12,6 km/h (3 Bft) 97,87 %
13.06.2016 23:52 15,1 C 15,0 C 13,9 C 96 % 1 lf 1000,6 hPa 0,0 l/m 0 min 0 min 5 W/m 12,6 km/h (3 Bft) 100,00 %
13.06.2016 23:54 15,1 C 15,0 C 13,9 C 96 % 1 lf 1000,5 hPa 0,0 l/m 0 min 0 min 5 W/m 8,4 km/h (2 Bft) 91,49 %
13.06.2016 23:56 15,1 C 15,0 C 13,9 C 96 % 1 lf 1000,5 hPa 0,0 l/m 0 min 0 min 5 W/m 14,6 km/h (3 Bft) 97,87 %
13.06.2016 23:58 15,1 C 15,0 C 13,9 C 96 % 1 lf 1000,5 hPa 0,0 l/m 0 min 0 min 5 W/m 16,7 km/h (3 Bft) 97,87 %
_ Min-Zeit 07:02 00:46 00:34 14:40 10:54 15:14 - - - - 00:40 18:56
Minimum _ 15,0 C 14,4 C 13,9 C 71 % 0 lf 999,2 hPa - - - - 2,1 km/h (1 Bft) 85,11 %
_ Max-Zeit 14:24 13:18 14:20 02:02 00:00 00:00 08:28 09:50 01:10 13:08 15:04 00:00
Maximum _ 21,7 C 31,1 C 28,9 C 98 % 15 lf 1005,1 hPa 0,2 l/m 2 min 2 min 1229 W/m 31,4 km/h
SW (5 Bft)
100,00 %
Durchschnitt _ 16,4 C 17,0 C 16,0 C 93 % 9 lf 1001,3 hPa #2,4 l/m #2:28 h #4:24 h 146 W/m 12,1 km/h (2 Bft) 96,15 %
© 2016 W. Hausmann